Wetterdaten: Dienstag, 27.09.2022
Datum Zeit Temp. Aussen Temp. o. S. Temp +5cm Feuchte Auss Luftdruck Regen Sonnenschein Regendauer Solar Windben Empfang
27.09.2022 00:00 10,8 C 10,0 C 7,2 C 97 % 996,0 hPa 0,0 l/m 0 min 2 min 0 W/m 9,7 km/h (2 Bft) 93,62 %
27.09.2022 00:02 10,8 C 10,0 C 7,2 C 97 % 996,0 hPa 0,0 l/m 0 min 2 min 0 W/m 9,7 km/h (2 Bft) 89,74 %
27.09.2022 00:04 10,8 C 10,0 C 7,2 C 97 % 996,0 hPa 0,2 l/m 0 min 2 min 0 W/m 19,3 km/h (3 Bft) 95,74 %
27.09.2022 00:08 10,8 C 10,0 C 7,2 C 97 % 996,0 hPa 0,0 l/m 0 min 4 min 0 W/m 16,1 km/h (3 Bft) 94,74 %
27.09.2022 00:10 10,8 C 10,0 C 7,2 C 97 % 996,0 hPa 0,0 l/m 0 min 2 min 0 W/m 12,9 km/h (3 Bft) 95,74 %
27.09.2022 00:12 10,8 C 10,0 C 7,2 C 97 % 996,1 hPa 0,0 l/m 0 min 2 min 0 W/m 12,9 km/h (3 Bft) 95,74 %
27.09.2022 00:14 10,8 C 10,0 C 7,2 C 97 % 996,1 hPa 0,0 l/m 0 min 2 min 0 W/m 16,1 km/h (3 Bft) 95,65 %
27.09.2022 00:16 10,8 C 10,0 C 7,2 C 97 % 996,0 hPa 0,0 l/m 0 min 2 min 0 W/m 12,9 km/h (3 Bft) 95,74 %
27.09.2022 00:18 10,8 C 10,0 C 7,2 C 97 % 996,0 hPa 0,0 l/m 0 min 2 min 0 W/m 9,7 km/h (2 Bft) 95,74 %
27.09.2022 00:20 10,8 C 10,0 C 7,2 C 97 % 996,0 hPa 0,0 l/m 0 min 2 min 0 W/m 6,4 km/h (2 Bft) 95,74 %
27.09.2022 00:22 10,8 C 10,0 C 7,2 C 97 % 996,1 hPa 0,0 l/m 0 min 2 min 0 W/m 12,9 km/h (3 Bft) 95,74 %
27.09.2022 00:24 10,8 C 10,0 C 7,2 C 97 % 996,1 hPa 0,0 l/m 0 min 2 min 0 W/m 16,1 km/h (3 Bft) 93,62 %
27.09.2022 00:26 10,8 C 10,0 C 7,2 C 97 % 996,1 hPa 0,0 l/m 0 min 2 min 0 W/m 16,1 km/h (3 Bft) 95,65 %
27.09.2022 00:28 10,8 C 10,0 C 7,2 C 97 % 996,1 hPa 0,0 l/m 0 min 2 min 0 W/m 12,9 km/h (3 Bft) 93,62 %
27.09.2022 00:30 10,7 C 10,0 C 6,7 C 97 % 996,1 hPa 0,2 l/m 0 min 2 min 0 W/m 16,1 km/h (3 Bft) 97,87 %
27.09.2022 00:32 10,7 C 10,0 C 6,7 C 97 % 996,1 hPa 0,0 l/m 0 min 2 min 0 W/m 12,9 km/h (3 Bft) 97,87 %
27.09.2022 00:34 10,7 C 10,0 C 6,7 C 97 % 996,1 hPa 0,0 l/m 0 min 2 min 0 W/m 12,9 km/h (3 Bft) 97,87 %
27.09.2022 00:36 10,6 C 10,0 C 6,7 C 97 % 996,1 hPa 0,0 l/m 0 min 2 min 0 W/m 6,4 km/h (2 Bft) 97,87 %
27.09.2022 00:38 10,6 C 10,0 C 6,7 C 97 % 996,1 hPa 0,0 l/m 0 min 2 min 0 W/m 9,7 km/h (2 Bft) 97,83 %
27.09.2022 00:40 10,6 C 10,0 C 6,7 C 97 % 996,1 hPa 0,0 l/m 0 min 2 min 0 W/m 12,9 km/h (3 Bft) 97,87 %
27.09.2022 00:42 10,6 C 10,0 C 6,7 C 97 % 996,1 hPa 0,0 l/m 0 min 2 min 0 W/m 12,9 km/h (3 Bft) 95,74 %
27.09.2022 00:44 10,6 C 10,0 C 6,7 C 97 % 996,1 hPa 0,0 l/m 0 min 2 min 0 W/m 16,1 km/h (3 Bft) 93,62 %
27.09.2022 00:46 10,6 C 10,0 C 6,7 C 97 % 996,1 hPa 0,0 l/m 0 min 2 min 0 W/m 12,9 km/h (3 Bft) 97,87 %
27.09.2022 00:48 10,6 C 10,0 C 6,7 C 97 % 996,1 hPa 0,0 l/m 0 min 2 min 0 W/m 6,4 km/h (2 Bft) 97,87 %
27.09.2022 00:50 10,6 C 10,0 C 6,7 C 97 % 996,1 hPa 0,0 l/m 0 min 2 min 0 W/m 12,9 km/h (3 Bft) 97,83 %
27.09.2022 00:52 10,6 C 10,0 C 6,7 C 97 % 996,1 hPa 0,0 l/m 0 min 2 min 0 W/m 12,9 km/h (3 Bft) 97,87 %
27.09.2022 00:54 10,6 C 10,0 C 6,7 C 97 % 996,1 hPa 0,0 l/m 0 min 2 min 0 W/m 12,9 km/h (3 Bft) 97,87 %
27.09.2022 00:56 10,5 C 10,0 C 6,7 C 97 % 996,1 hPa 0,0 l/m 0 min 2 min 0 W/m 12,9 km/h (3 Bft) 97,87 %
27.09.2022 00:58 10,5 C 10,0 C 6,7 C 97 % 996,1 hPa 0,0 l/m 0 min 2 min 0 W/m 12,9 km/h (3 Bft) 97,87 %
27.09.2022 01:00 10,5 C 10,0 C 6,7 C 97 % 996,1 hPa 0,0 l/m 0 min 2 min 0 W/m 9,7 km/h (2 Bft) 97,87 %
27.09.2022 01:02 10,5 C 10,0 C 6,7 C 97 % 996,1 hPa 0,0 l/m 0 min 2 min 0 W/m 19,3 km/h (3 Bft) 97,83 %
27.09.2022 01:04 10,5 C 10,0 C 6,7 C 97 % 996,2 hPa 0,0 l/m 0 min 2 min 0 W/m 6,4 km/h (2 Bft) 95,74 %
27.09.2022 01:06 10,4 C 9,4 C 6,7 C 97 % 996,2 hPa 0,0 l/m 0 min 2 min 0 W/m 9,7 km/h (2 Bft) 97,87 %
27.09.2022 01:08 10,4 C 9,4 C 6,7 C 97 % 996,2 hPa 0,2 l/m 0 min 2 min 0 W/m 12,9 km/h (3 Bft) 97,87 %
27.09.2022 01:10 10,4 C 9,4 C 6,7 C 97 % 996,2 hPa 0,0 l/m 0 min 2 min 0 W/m 16,1 km/h (3 Bft) 97,87 %
27.09.2022 01:12 10,4 C 9,4 C 6,7 C 97 % 996,3 hPa 0,0 l/m 0 min 2 min 0 W/m 12,9 km/h (3 Bft) 97,87 %
27.09.2022 01:14 10,3 C 9,4 C 6,7 C 97 % 996,2 hPa 0,0 l/m 0 min 2 min 0 W/m 12,9 km/h (3 Bft) 97,83 %
27.09.2022 01:16 10,3 C 9,4 C 6,7 C 97 % 996,2 hPa 0,0 l/m 0 min 2 min 0 W/m 16,1 km/h (3 Bft) 97,87 %
27.09.2022 01:18 10,3 C 9,4 C 6,7 C 97 % 996,3 hPa 0,0 l/m 0 min 2 min 0 W/m 16,1 km/h (3 Bft) 97,87 %
27.09.2022 01:20 10,3 C 9,4 C 6,7 C 97 % 996,2 hPa 0,0 l/m 0 min 2 min 0 W/m 9,7 km/h (2 Bft) 95,74 %
27.09.2022 01:22 10,3 C 9,4 C 6,7 C 97 % 996,2 hPa 0,0 l/m 0 min 2 min 0 W/m 9,7 km/h (2 Bft) 95,74 %
27.09.2022 01:24 10,3 C 9,4 C 6,7 C 97 % 996,2 hPa 0,0 l/m 0 min 2 min 0 W/m 9,7 km/h (2 Bft) 97,87 %
27.09.2022 01:26 10,3 C 9,4 C 6,7 C 97 % 996,2 hPa 0,0 l/m 0 min 2 min 0 W/m 6,4 km/h (2 Bft) 97,83 %
27.09.2022 01:28 10,3 C 9,4 C 6,7 C 97 % 996,2 hPa 0,0 l/m 0 min 2 min 0 W/m 6,4 km/h (2 Bft) 97,87 %
27.09.2022 01:30 10,3 C 9,4 C 6,7 C 97 % 996,2 hPa 0,0 l/m 0 min 2 min 0 W/m 6,4 km/h (2 Bft) 97,87 %
27.09.2022 01:32 10,3 C 9,4 C 6,7 C 97 % 996,2 hPa 0,0 l/m 0 min 2 min 0 W/m 9,7 km/h (2 Bft) 97,87 %
27.09.2022 01:34 10,3 C 9,4 C 6,7 C 97 % 996,3 hPa 0,0 l/m 0 min 2 min 0 W/m 9,7 km/h (2 Bft) 97,87 %
27.09.2022 01:36 10,3 C 9,4 C 6,7 C 97 % 996,3 hPa 0,0 l/m 0 min 2 min 0 W/m 12,9 km/h (3 Bft) 97,87 %
27.09.2022 01:38 10,3 C 9,4 C 6,7 C 97 % 996,3 hPa 0,0 l/m 0 min 0 min 0 W/m 6,4 km/h (2 Bft) 97,83 %
27.09.2022 01:40 10,2 C 9,4 C 6,7 C 97 % 996,3 hPa 0,0 l/m 0 min 0 min 0 W/m 12,9 km/h (3 Bft) 97,87 %
27.09.2022 01:42 10,2 C 9,4 C 6,7 C 97 % 996,3 hPa 0,0 l/m 0 min 0 min 0 W/m 6,4 km/h (2 Bft) 100,00 %
27.09.2022 01:44 10,2 C 9,4 C 6,7 C 97 % 996,3 hPa 0,0 l/m 0 min 0 min 0 W/m 9,7 km/h (2 Bft) 97,87 %
27.09.2022 01:46 10,2 C 9,4 C 6,7 C 97 % 996,3 hPa 0,0 l/m 0 min 0 min 0 W/m 12,9 km/h (3 Bft) 100,00 %
27.09.2022 01:48 10,2 C 9,4 C 6,7 C 97 % 996,3 hPa 0,0 l/m 0 min 0 min 0 W/m 12,9 km/h (3 Bft) 97,87 %
27.09.2022 01:50 10,2 C 9,4 C 6,7 C 97 % 996,3 hPa 0,0 l/m 0 min 0 min 0 W/m 9,7 km/h (2 Bft) 97,83 %
27.09.2022 01:52 10,2 C 9,4 C 6,7 C 97 % 996,4 hPa 0,0 l/m 0 min 0 min 0 W/m 9,7 km/h (2 Bft) 95,74 %
27.09.2022 01:54 10,2 C 9,4 C 6,7 C 97 % 996,4 hPa 0,0 l/m 0 min 0 min 0 W/m 6,4 km/h (2 Bft) 97,87 %
27.09.2022 01:56 10,2 C 9,4 C 6,7 C 97 % 996,4 hPa 0,0 l/m 0 min 0 min 0 W/m 9,7 km/h (2 Bft) 97,87 %
27.09.2022 01:58 10,2 C 9,4 C 6,7 C 97 % 996,4 hPa 0,0 l/m 0 min 0 min 0 W/m 6,4 km/h (2 Bft) 97,87 %
27.09.2022 02:00 10,1 C 9,4 C 6,7 C 97 % 996,4 hPa 0,0 l/m 0 min 0 min 0 W/m 9,7 km/h (2 Bft) 97,87 %
27.09.2022 02:02 10,2 C 9,4 C 6,7 C 97 % 996,4 hPa 0,0 l/m 0 min 0 min 0 W/m 9,7 km/h (2 Bft) 97,83 %
27.09.2022 02:04 10,1 C 9,4 C 6,7 C 97 % 996,4 hPa 0,0 l/m 0 min 0 min 0 W/m 6,4 km/h (2 Bft) 97,87 %
27.09.2022 02:06 10,1 C 9,4 C 6,7 C 97 % 996,4 hPa 0,0 l/m 0 min 0 min 0 W/m 12,9 km/h (3 Bft) 97,87 %
27.09.2022 02:08 10,1 C 9,4 C 6,7 C 97 % 996,4 hPa 0,0 l/m 0 min 0 min 0 W/m 6,4 km/h (2 Bft) 97,87 %
27.09.2022 02:10 10,1 C 9,4 C 6,7 C 97 % 996,4 hPa 0,0 l/m 0 min 0 min 0 W/m 6,4 km/h (2 Bft) 95,74 %
27.09.2022 02:14 10,1 C 9,4 C 6,7 C 97 % 996,5 hPa 0,0 l/m 0 min 0 min 0 W/m 12,9 km/h (3 Bft) 100,00 %
27.09.2022 02:16 10,1 C 9,4 C 6,7 C 97 % 996,5 hPa 0,0 l/m 0 min 0 min 0 W/m 6,4 km/h (2 Bft) 97,87 %
27.09.2022 02:18 10,2 C 9,4 C 6,7 C 97 % 996,5 hPa 0,0 l/m 0 min 0 min 0 W/m 9,7 km/h (2 Bft) 100,00 %
27.09.2022 02:20 10,2 C 9,4 C 6,7 C 97 % 996,5 hPa 0,0 l/m 0 min 0 min 0 W/m 12,9 km/h (3 Bft) 95,74 %
27.09.2022 02:22 10,2 C 9,4 C 6,7 C 97 % 996,5 hPa 0,0 l/m 0 min 0 min 0 W/m 6,4 km/h (2 Bft) 97,87 %
27.09.2022 02:24 10,2 C 9,4 C 6,7 C 97 % 996,6 hPa 0,0 l/m 0 min 2 min 0 W/m 12,9 km/h (3 Bft) 97,87 %
27.09.2022 02:26 10,2 C 9,4 C 6,7 C 97 % 996,6 hPa 0,0 l/m 0 min 2 min 0 W/m 12,9 km/h (3 Bft) 100,00 %
27.09.2022 02:28 10,2 C 9,4 C 6,7 C 97 % 996,6 hPa 0,0 l/m 0 min 2 min 0 W/m 6,4 km/h (2 Bft) 100,00 %
27.09.2022 02:30 10,2 C 9,4 C 6,7 C 97 % 996,6 hPa 0,0 l/m 0 min 2 min 0 W/m 12,9 km/h (3 Bft) 100,00 %
27.09.2022 02:32 10,2 C 9,4 C 6,7 C 97 % 996,7 hPa 0,0 l/m 0 min 0 min 0 W/m 12,9 km/h (3 Bft) 97,87 %
27.09.2022 02:34 10,2 C 9,4 C 6,7 C 97 % 996,7 hPa 0,0 l/m 0 min 0 min 0 W/m 9,7 km/h (2 Bft) 100,00 %
27.09.2022 02:36 10,2 C 9,4 C 6,7 C 97 % 996,7 hPa 0,0 l/m 0 min 0 min 0 W/m 12,9 km/h (3 Bft) 100,00 %
27.09.2022 02:38 10,2 C 9,4 C 6,7 C 97 % 996,7 hPa 0,0 l/m 0 min 0 min 0 W/m 9,7 km/h (2 Bft) 100,00 %
27.09.2022 02:40 10,1 C 9,4 C 6,7 C 97 % 996,8 hPa 0,0 l/m 0 min 0 min 0 W/m 12,9 km/h (3 Bft) 100,00 %
27.09.2022 02:42 10,1 C 9,4 C 6,7 C 97 % 996,7 hPa 0,0 l/m 0 min 0 min 0 W/m 9,7 km/h (2 Bft) 97,87 %
27.09.2022 02:44 10,1 C 9,4 C 6,7 C 97 % 996,7 hPa 0,0 l/m 0 min 0 min 0 W/m 9,7 km/h (2 Bft) 100,00 %
27.09.2022 02:46 10,1 C 9,4 C 6,7 C 97 % 996,8 hPa 0,0 l/m 0 min 0 min 0 W/m 9,7 km/h (2 Bft) 100,00 %
27.09.2022 02:48 10,1 C 9,4 C 6,7 C 97 % 996,7 hPa 0,0 l/m 0 min 0 min 0 W/m 12,9 km/h (3 Bft) 100,00 %
27.09.2022 02:50 10,1 C 9,4 C 6,7 C 97 % 996,8 hPa 0,0 l/m 0 min 0 min 0 W/m 9,7 km/h (2 Bft) 100,00 %
27.09.2022 02:52 10,1 C 9,4 C 6,7 C 97 % 996,9 hPa 0,0 l/m 0 min 0 min 0 W/m 19,3 km/h (3 Bft) 97,83 %
27.09.2022 02:54 10,1 C 9,4 C 6,7 C 97 % 996,7 hPa 0,0 l/m 0 min 0 min 0 W/m 16,1 km/h (3 Bft) 97,87 %
27.09.2022 02:56 10,1 C 9,4 C 6,7 C 97 % 996,8 hPa 0,0 l/m 0 min 0 min 0 W/m 16,1 km/h (3 Bft) 100,00 %
27.09.2022 02:58 10,1 C 9,4 C 6,7 C 97 % 996,8 hPa 0,0 l/m 0 min 0 min 0 W/m 12,9 km/h (3 Bft) 100,00 %
27.09.2022 03:00 10,1 C 9,4 C 6,7 C 97 % 996,8 hPa 0,0 l/m 0 min 0 min 0 W/m 12,9 km/h (3 Bft) 100,00 %
27.09.2022 03:02 10,1 C 9,4 C 6,7 C 97 % 996,7 hPa 0,0 l/m 0 min 0 min 0 W/m 9,7 km/h (2 Bft) 100,00 %
27.09.2022 03:04 10,1 C 9,4 C 6,7 C 97 % 996,8 hPa 0,0 l/m 0 min 0 min 0 W/m 12,9 km/h (3 Bft) 97,83 %
27.09.2022 03:06 10,1 C 9,4 C 6,7 C 97 % 996,8 hPa 0,0 l/m 0 min 0 min 0 W/m 9,7 km/h (2 Bft) 97,87 %
27.09.2022 03:08 10,1 C 9,4 C 6,7 C 97 % 996,8 hPa 0,0 l/m 0 min 0 min 0 W/m 16,1 km/h (3 Bft) 97,87 %
27.09.2022 03:10 10,1 C 9,4 C 6,7 C 97 % 996,8 hPa 0,0 l/m 0 min 0 min 0 W/m 6,4 km/h (2 Bft) 97,87 %
27.09.2022 03:12 10,0 C 9,4 C 6,7 C 97 % 996,8 hPa 0,0 l/m 0 min 0 min 0 W/m 6,4 km/h (2 Bft) 97,87 %
27.09.2022 03:14 10,1 C 9,4 C 6,7 C 97 % 996,8 hPa 0,0 l/m 0 min 0 min 0 W/m 9,7 km/h (2 Bft) 97,87 %
27.09.2022 03:16 10,0 C 9,4 C 6,7 C 97 % 996,9 hPa 0,0 l/m 0 min 0 min 0 W/m 9,7 km/h (2 Bft) 95,65 %
27.09.2022 03:18 10,0 C 9,4 C 6,7 C 97 % 996,9 hPa 0,0 l/m 0 min 0 min 0 W/m 9,7 km/h (2 Bft) 97,87 %
27.09.2022 03:20 10,1 C 9,4 C 6,7 C 97 % 996,9 hPa 0,0 l/m 0 min 0 min 0 W/m 9,7 km/h (2 Bft) 95,74 %
27.09.2022 03:22 10,1 C 9,4 C 6,7 C 97 % 997,0 hPa 0,0 l/m 0 min 0 min 0 W/m 12,9 km/h (3 Bft) 97,87 %
27.09.2022 03:24 10,1 C 9,4 C 6,7 C 97 % 997,0 hPa 0,0 l/m 0 min 0 min 0 W/m 12,9 km/h (3 Bft) 95,74 %
27.09.2022 03:26 10,0 C 9,4 C 6,7 C 97 % 997,0 hPa 0,0 l/m 0 min 0 min 0 W/m 19,3 km/h (3 Bft) 97,87 %
27.09.2022 03:28 10,0 C 9,4 C 6,7 C 97 % 997,1 hPa 0,0 l/m 0 min 0 min 0 W/m 12,9 km/h (3 Bft) 95,65 %
27.09.2022 03:30 10,0 C 9,4 C 6,7 C 97 % 997,0 hPa 0,0 l/m 0 min 0 min 0 W/m 16,1 km/h (3 Bft) 93,62 %
27.09.2022 03:32 10,0 C 9,4 C 6,7 C 97 % 996,9 hPa 0,0 l/m 0 min 0 min 0 W/m 19,3 km/h (3 Bft) 95,74 %
27.09.2022 03:34 10,0 C 9,4 C 6,7 C 97 % 996,9 hPa 0,0 l/m 0 min 0 min 0 W/m 12,9 km/h (3 Bft) 95,74 %
27.09.2022 03:36 10,0 C 9,4 C 6,7 C 97 % 997,0 hPa 0,0 l/m 0 min 0 min 0 W/m 12,9 km/h (3 Bft) 95,74 %
27.09.2022 03:38 10,0 C 9,4 C 6,7 C 97 % 997,0 hPa 0,0 l/m 0 min 0 min 0 W/m 9,7 km/h (2 Bft) 93,62 %
27.09.2022 03:40 10,0 C 9,4 C 6,7 C 97 % 997,1 hPa 0,0 l/m 0 min 0 min 0 W/m 16,1 km/h (3 Bft) 93,48 %
27.09.2022 03:42 10,0 C 9,4 C 6,7 C 97 % 997,1 hPa 0,0 l/m 0 min 0 min 0 W/m 12,9 km/h (3 Bft) 93,62 %
27.09.2022 03:44 10,0 C 9,4 C 6,7 C 97 % 997,1 hPa 0,0 l/m 0 min 0 min 0 W/m 16,1 km/h (3 Bft) 93,62 %
27.09.2022 03:46 10,0 C 9,4 C 6,7 C 97 % 997,0 hPa 0,0 l/m 0 min 0 min 0 W/m 12,9 km/h (3 Bft) 93,62 %
27.09.2022 03:48 10,0 C 9,4 C 6,7 C 97 % 997,1 hPa 0,0 l/m 0 min 0 min 0 W/m 6,4 km/h (2 Bft) 93,62 %
27.09.2022 03:50 10,0 C 9,4 C 6,7 C 97 % 997,1 hPa 0,0 l/m 0 min 0 min 0 W/m 6,4 km/h (2 Bft) 91,49 %
27.09.2022 03:52 10,0 C 9,4 C 6,7 C 97 % 997,0 hPa 0,0 l/m 0 min 0 min 0 W/m 9,7 km/h (2 Bft) 93,48 %
27.09.2022 03:54 10,0 C 9,4 C 6,7 C 97 % 997,0 hPa 0,0 l/m 0 min 0 min 0 W/m 16,1 km/h (3 Bft) 93,62 %
27.09.2022 03:56 9,9 C 9,4 C 6,7 C 97 % 997,0 hPa 0,0 l/m 0 min 0 min 0 W/m 12,9 km/h (3 Bft) 95,74 %
27.09.2022 03:58 10,0 C 9,4 C 6,7 C 97 % 997,0 hPa 0,0 l/m 0 min 0 min 0 W/m 16,1 km/h (3 Bft) 95,74 %
27.09.2022 04:00 10,0 C 9,4 C 6,7 C 97 % 997,1 hPa 0,0 l/m 0 min 0 min 0 W/m 16,1 km/h (3 Bft) 95,74 %
27.09.2022 04:02 10,0 C 9,4 C 6,7 C 97 % 997,0 hPa 0,0 l/m 0 min 0 min 0 W/m 12,9 km/h (3 Bft) 93,62 %
27.09.2022 04:04 10,0 C 9,4 C 6,7 C 97 % 997,0 hPa 0,0 l/m 0 min 0 min 0 W/m 12,9 km/h (3 Bft) 93,48 %
27.09.2022 04:06 9,9 C 9,4 C 6,7 C 97 % 997,0 hPa 0,0 l/m 0 min 0 min 0 W/m 19,3 km/h (3 Bft) 95,74 %
27.09.2022 04:08 9,9 C 9,4 C 6,7 C 97 % 997,0 hPa 0,0 l/m 0 min 0 min 0 W/m 12,9 km/h (3 Bft) 93,62 %
27.09.2022 04:10 9,9 C 9,4 C 6,7 C 97 % 997,0 hPa 0,0 l/m 0 min 0 min 0 W/m 9,7 km/h (2 Bft) 97,87 %
27.09.2022 04:12 9,9 C 9,4 C 6,7 C 97 % 997,0 hPa 0,0 l/m 0 min 0 min 0 W/m 12,9 km/h (3 Bft) 93,62 %
27.09.2022 04:14 9,9 C 9,4 C 6,7 C 97 % 997,0 hPa 0,0 l/m 0 min 0 min 0 W/m 9,7 km/h (2 Bft) 97,87 %
27.09.2022 04:16 9,9 C 9,4 C 6,7 C 97 % 997,1 hPa 0,0 l/m 0 min 0 min 0 W/m 12,9 km/h (3 Bft) 93,48 %
27.09.2022 04:18 9,9 C 9,4 C 6,7 C 97 % 997,1 hPa 0,0 l/m 0 min 0 min 0 W/m 6,4 km/h (2 Bft) 97,87 %
27.09.2022 04:20 9,9 C 9,4 C 6,7 C 97 % 997,2 hPa 0,0 l/m 0 min 0 min 0 W/m 9,7 km/h (2 Bft) 97,87 %
27.09.2022 04:22 9,9 C 9,4 C 6,7 C 97 % 997,2 hPa 0,0 l/m 0 min 0 min 0 W/m 12,9 km/h (3 Bft) 100,00 %
27.09.2022 04:24 9,9 C 9,4 C 6,7 C 97 % 997,2 hPa 0,0 l/m 0 min 0 min 0 W/m 9,7 km/h (2 Bft) 100,00 %
27.09.2022 04:26 9,9 C 9,4 C 6,7 C 97 % 997,2 hPa 0,0 l/m 0 min 0 min 0 W/m 16,1 km/h (3 Bft) 100,00 %
27.09.2022 04:28 9,9 C 9,4 C 6,7 C 97 % 997,2 hPa 0,0 l/m 0 min 0 min 0 W/m 16,1 km/h (3 Bft) 97,83 %
27.09.2022 04:30 9,9 C 9,4 C 6,7 C 97 % 997,2 hPa 0,0 l/m 0 min 0 min 0 W/m 12,9 km/h (3 Bft) 100,00 %
27.09.2022 04:32 9,9 C 9,4 C 6,1 C 97 % 997,3 hPa 0,0 l/m 0 min 0 min 0 W/m 12,9 km/h (3 Bft) 100,00 %
27.09.2022 04:34 9,9 C 9,4 C 6,1 C 97 % 997,3 hPa 0,0 l/m 0 min 0 min 0 W/m 16,1 km/h (3 Bft) 100,00 %
27.09.2022 04:36 9,8 C 9,4 C 6,1 C 97 % 997,3 hPa 0,0 l/m 0 min 0 min 0 W/m 12,9 km/h (3 Bft) 100,00 %
27.09.2022 04:38 9,8 C 9,4 C 6,1 C 97 % 997,3 hPa 0,0 l/m 0 min 0 min 0 W/m 12,9 km/h (3 Bft) 100,00 %
27.09.2022 04:40 9,8 C 9,4 C 6,1 C 97 % 997,3 hPa 0,0 l/m 0 min 0 min 0 W/m 16,1 km/h (3 Bft) 100,00 %
27.09.2022 04:42 9,8 C 9,4 C 6,1 C 97 % 997,3 hPa 0,0 l/m 0 min 0 min 0 W/m 12,9 km/h (3 Bft) 100,00 %
27.09.2022 04:44 9,8 C 9,4 C 6,1 C 97 % 997,4 hPa 0,0 l/m 0 min 0 min 0 W/m 9,7 km/h (2 Bft) 95,74 %
27.09.2022 04:46 9,8 C 8,9 C 6,1 C 97 % 997,4 hPa 0,0 l/m 0 min 0 min 0 W/m 12,9 km/h (3 Bft) 95,74 %
27.09.2022 04:48 9,8 C 8,9 C 6,1 C 97 % 997,4 hPa 0,0 l/m 0 min 0 min 0 W/m 9,7 km/h (2 Bft) 100,00 %
27.09.2022 04:50 9,7 C 8,9 C 6,1 C 97 % 997,4 hPa 0,0 l/m 0 min 0 min 0 W/m 12,9 km/h (3 Bft) 100,00 %
27.09.2022 04:52 9,7 C 8,9 C 6,1 C 97 % 997,5 hPa 0,0 l/m 0 min 0 min 0 W/m 12,9 km/h (3 Bft) 100,00 %
27.09.2022 04:54 9,7 C 8,9 C 6,1 C 97 % 997,4 hPa 0,0 l/m 0 min 0 min 0 W/m 9,7 km/h (2 Bft) 100,00 %
27.09.2022 04:56 9,6 C 8,9 C 6,1 C 97 % 997,5 hPa 0,0 l/m 0 min 0 min 0 W/m 9,7 km/h (2 Bft) 100,00 %
27.09.2022 04:58 9,6 C 8,9 C 6,1 C 97 % 997,5 hPa 0,0 l/m 0 min 0 min 0 W/m 12,9 km/h (3 Bft) 100,00 %
27.09.2022 05:00 9,6 C 8,9 C 6,1 C 97 % 997,5 hPa 0,0 l/m 0 min 0 min 0 W/m 12,9 km/h (3 Bft) 100,00 %
27.09.2022 05:02 9,5 C 8,9 C 6,1 C 97 % 997,5 hPa 0,0 l/m 0 min 0 min 0 W/m 12,9 km/h (3 Bft) 100,00 %
27.09.2022 05:04 9,5 C 8,9 C 5,6 C 97 % 997,5 hPa 0,0 l/m 0 min 0 min 0 W/m 6,4 km/h (2 Bft) 97,83 %
27.09.2022 05:06 9,4 C 8,9 C 5,6 C 97 % 997,4 hPa 0,0 l/m 0 min 0 min 0 W/m 9,7 km/h (2 Bft) 100,00 %
27.09.2022 05:08 9,4 C 8,9 C 5,6 C 97 % 997,4 hPa 0,0 l/m 0 min 0 min 0 W/m 12,9 km/h (3 Bft) 100,00 %
27.09.2022 05:10 9,4 C 8,3 C 5,6 C 97 % 997,4 hPa 0,0 l/m 0 min 0 min 0 W/m 12,9 km/h (3 Bft) 100,00 %
27.09.2022 05:12 9,4 C 8,3 C 5,6 C 97 % 997,4 hPa 0,0 l/m 0 min 0 min 0 W/m 6,4 km/h (2 Bft) 100,00 %
27.09.2022 05:14 9,3 C 8,3 C 5,6 C 97 % 997,4 hPa 0,0 l/m 0 min 0 min 0 W/m 12,9 km/h (3 Bft) 100,00 %
27.09.2022 05:16 9,3 C 8,3 C 5,6 C 97 % 997,4 hPa 0,0 l/m 0 min 0 min 0 W/m 12,9 km/h (3 Bft) 100,00 %
27.09.2022 05:18 9,3 C 8,3 C 5,6 C 97 % 997,5 hPa 0,0 l/m 0 min 0 min 0 W/m 19,3 km/h (3 Bft) 100,00 %
27.09.2022 05:20 9,3 C 8,3 C 5,6 C 97 % 997,4 hPa 0,0 l/m 0 min 0 min 0 W/m 12,9 km/h (3 Bft) 97,87 %
27.09.2022 05:22 9,3 C 8,3 C 5,6 C 97 % 997,4 hPa 0,0 l/m 0 min 0 min 0 W/m 6,4 km/h (2 Bft) 100,00 %
27.09.2022 05:24 9,2 C 8,3 C 5,6 C 97 % 997,5 hPa 0,0 l/m 0 min 0 min 0 W/m 6,4 km/h (2 Bft) 100,00 %
27.09.2022 05:26 9,2 C 8,3 C 5,6 C 97 % 997,5 hPa 0,0 l/m 0 min 0 min 0 W/m 12,9 km/h (3 Bft) 95,74 %
27.09.2022 05:28 9,2 C 8,3 C 5,6 C 97 % 997,5 hPa 0,0 l/m 0 min 0 min 0 W/m 9,7 km/h (2 Bft) 97,83 %
27.09.2022 05:30 9,2 C 8,3 C 5,6 C 97 % 997,5 hPa 0,0 l/m 0 min 0 min 0 W/m 9,7 km/h (2 Bft) 95,74 %
27.09.2022 05:32 9,2 C 8,3 C 5,6 C 97 % 997,5 hPa 0,0 l/m 0 min 0 min 0 W/m 6,4 km/h (2 Bft) 95,74 %
27.09.2022 05:34 9,2 C 8,3 C 5,6 C 97 % 997,5 hPa 0,0 l/m 0 min 0 min 0 W/m 22,5 km/h (4 Bft) 93,62 %
27.09.2022 05:36 9,1 C 8,3 C 5,6 C 97 % 997,5 hPa 0,0 l/m 0 min 0 min 0 W/m 9,7 km/h (2 Bft) 93,62 %
27.09.2022 05:38 9,1 C 8,3 C 5,6 C 97 % 997,6 hPa 0,0 l/m 0 min 0 min 0 W/m 19,3 km/h (3 Bft) 95,74 %
27.09.2022 05:40 9,1 C 8,3 C 5,6 C 97 % 997,5 hPa 0,0 l/m 0 min 0 min 0 W/m 16,1 km/h (3 Bft) 97,83 %
27.09.2022 05:42 9,1 C 8,3 C 5,6 C 97 % 997,6 hPa 0,0 l/m 0 min 0 min 0 W/m 16,1 km/h (3 Bft) 97,87 %
27.09.2022 05:44 9,1 C 8,3 C 5,6 C 97 % 997,5 hPa 0,0 l/m 0 min 0 min 0 W/m 16,1 km/h (3 Bft) 97,87 %
27.09.2022 05:46 9,1 C 8,3 C 5,6 C 97 % 997,5 hPa 0,0 l/m 0 min 0 min 0 W/m 12,9 km/h (3 Bft) 97,87 %
27.09.2022 05:48 9,1 C 8,3 C 5,6 C 97 % 997,4 hPa 0,0 l/m 0 min 0 min 0 W/m 12,9 km/h (3 Bft) 93,62 %
27.09.2022 05:50 9,1 C 8,3 C 5,6 C 97 % 997,4 hPa 0,0 l/m 0 min 0 min 0 W/m 9,7 km/h (2 Bft) 97,87 %
27.09.2022 05:52 9,1 C 8,3 C 5,6 C 97 % 997,5 hPa 0,0 l/m 0 min 0 min 0 W/m 9,7 km/h (2 Bft) 97,83 %
27.09.2022 05:54 9,1 C 8,3 C 5,6 C 97 % 997,5 hPa 0,0 l/m 0 min 0 min 0 W/m 12,9 km/h (3 Bft) 100,00 %
27.09.2022 05:56 9,1 C 8,3 C 5,6 C 97 % 997,4 hPa 0,0 l/m 0 min 0 min 0 W/m 6,4 km/h (2 Bft) 97,87 %
27.09.2022 05:58 9,0 C 8,3 C 5,6 C 97 % 997,5 hPa 0,0 l/m 0 min 0 min 0 W/m 19,3 km/h (3 Bft) 100,00 %
27.09.2022 06:00 9,0 C 8,3 C 5,6 C 97 % 997,5 hPa 0,0 l/m 0 min 0 min 0 W/m 9,7 km/h (2 Bft) 100,00 %
27.09.2022 06:02 8,9 C 8,3 C 5,6 C 97 % 997,5 hPa 0,0 l/m 0 min 0 min 0 W/m 16,1 km/h (3 Bft) 97,87 %
27.09.2022 06:04 8,9 C 8,3 C 5,6 C 97 % 997,5 hPa 0,0 l/m 0 min 0 min 0 W/m 6,4 km/h (2 Bft) 100,00 %
27.09.2022 06:08 8,9 C 8,3 C 5,6 C 97 % 997,5 hPa 0,0 l/m 0 min 0 min 0 W/m 12,9 km/h (3 Bft) 97,92 %
27.09.2022 06:10 8,9 C 8,3 C 5,6 C 97 % 997,6 hPa 0,0 l/m 0 min 0 min 0 W/m 19,3 km/h (3 Bft) 97,87 %
27.09.2022 06:12 8,9 C 8,3 C 5,6 C 97 % 997,6 hPa 0,0 l/m 0 min 0 min 0 W/m 16,1 km/h (3 Bft) 97,87 %
27.09.2022 06:14 8,9 C 8,3 C 5,6 C 97 % 997,6 hPa 0,0 l/m 0 min 0 min 0 W/m 12,9 km/h (3 Bft) 97,83 %
27.09.2022 06:16 8,9 C 8,3 C 5,6 C 97 % 997,6 hPa 0,0 l/m 0 min 0 min 0 W/m 16,1 km/h (3 Bft) 93,62 %
27.09.2022 06:18 8,9 C 8,3 C 5,6 C 97 % 997,6 hPa 0,0 l/m 0 min 0 min 0 W/m 12,9 km/h (3 Bft) 93,62 %
27.09.2022 06:20 8,9 C 8,3 C 5,6 C 97 % 997,6 hPa 0,0 l/m 0 min 0 min 0 W/m 9,7 km/h (2 Bft) 95,74 %
27.09.2022 06:22 8,9 C 8,3 C 5,6 C 97 % 997,5 hPa 0,0 l/m 0 min 0 min 0 W/m 12,9 km/h (3 Bft) 97,87 %
27.09.2022 06:24 8,9 C 8,3 C 5,6 C 97 % 997,7 hPa 0,0 l/m 0 min 0 min 0 W/m 12,9 km/h (3 Bft) 95,74 %
27.09.2022 06:26 8,9 C 8,3 C 5,6 C 97 % 997,5 hPa 0,0 l/m 0 min 0 min 0 W/m 6,4 km/h (2 Bft) 91,30 %
27.09.2022 06:28 8,9 C 8,3 C 5,6 C 97 % 997,6 hPa 0,0 l/m 0 min 0 min 0 W/m 9,7 km/h (2 Bft) 95,74 %
27.09.2022 06:30 8,9 C 8,3 C 5,6 C 97 % 997,6 hPa 0,0 l/m 0 min 0 min 0 W/m 12,9 km/h (3 Bft) 95,74 %
27.09.2022 06:32 8,9 C 8,3 C 5,6 C 97 % 997,6 hPa 0,0 l/m 0 min 0 min 0 W/m 16,1 km/h (3 Bft) 94,44 %
27.09.2022 06:34 8,9 C 8,3 C 5,6 C 97 % 997,7 hPa 0,0 l/m 0 min 0 min 0 W/m 16,1 km/h (3 Bft) 95,74 %
27.09.2022 06:36 8,9 C 8,3 C 5,6 C 97 % 997,7 hPa 0,0 l/m 0 min 0 min 0 W/m 12,9 km/h (3 Bft) 96,61 %
27.09.2022 06:38 8,9 C 8,3 C 5,6 C 96 % 997,7 hPa 0,0 l/m 0 min 0 min 0 W/m 12,9 km/h (3 Bft) 91,43 %
27.09.2022 06:40 8,8 C 8,3 C 5,0 C 96 % 997,7 hPa 0,0 l/m 0 min 0 min 0 W/m 12,9 km/h (3 Bft) 97,83 %
27.09.2022 06:42 8,8 C 8,3 C 5,6 C 96 % 997,7 hPa 0,0 l/m 0 min 0 min 0 W/m 12,9 km/h (3 Bft) 95,74 %
27.09.2022 06:44 8,8 C 8,3 C 5,6 C 96 % 997,8 hPa 0,0 l/m 0 min 0 min 0 W/m 12,9 km/h (3 Bft) 95,74 %
27.09.2022 06:46 8,8 C 8,3 C 5,6 C 97 % 997,8 hPa 0,0 l/m 0 min 0 min 0 W/m 9,7 km/h (2 Bft) 95,74 %
27.09.2022 06:48 8,8 C 8,3 C 5,0 C 97 % 997,7 hPa 0,0 l/m 0 min 0 min 0 W/m 16,1 km/h (3 Bft) 91,49 %
27.09.2022 06:50 8,8 C 8,3 C 5,0 C 97 % 997,7 hPa 0,0 l/m 0 min 0 min 0 W/m 6,4 km/h (2 Bft) 97,87 %
27.09.2022 06:52 8,8 C 8,3 C 5,0 C 96 % 997,7 hPa 0,0 l/m 0 min 0 min 0 W/m 12,9 km/h (3 Bft) 97,87 %
27.09.2022 06:54 8,8 C 8,3 C 5,0 C 96 % 997,7 hPa 0,0 l/m 0 min 0 min 0 W/m 22,5 km/h (4 Bft) 97,87 %
27.09.2022 06:56 8,8 C 8,3 C 5,0 C 96 % 997,7 hPa 0,0 l/m 0 min 0 min 0 W/m 9,7 km/h (2 Bft) 95,74 %
27.09.2022 06:58 8,8 C 8,3 C 5,0 C 96 % 997,7 hPa 0,0 l/m 0 min 0 min 0 W/m 9,7 km/h (2 Bft) 97,87 %
27.09.2022 07:00 8,8 C 8,3 C 5,0 C 96 % 997,7 hPa 0,0 l/m 0 min 0 min 0 W/m 12,9 km/h (3 Bft) 95,74 %
27.09.2022 07:02 8,7 C 8,3 C 5,0 C 96 % 997,7 hPa 0,0 l/m 0 min 0 min 0 W/m 12,9 km/h (3 Bft) 97,83 %
27.09.2022 07:04 8,7 C 7,8 C 5,0 C 96 % 997,8 hPa 0,0 l/m 0 min 0 min 0 W/m 6,4 km/h (2 Bft) 95,74 %
27.09.2022 07:06 8,7 C 7,8 C 5,0 C 96 % 997,9 hPa 0,0 l/m 0 min 0 min 0 W/m 16,1 km/h (3 Bft) 95,74 %
27.09.2022 07:08 8,7 C 8,3 C 5,0 C 96 % 998,0 hPa 0,2 l/m 0 min 0 min 0 W/m 16,1 km/h (3 Bft) 97,87 %
27.09.2022 07:10 8,7 C 8,3 C 5,0 C 96 % 998,0 hPa 0,0 l/m 0 min 0 min 0 W/m 12,9 km/h (3 Bft) 97,87 %
27.09.2022 07:12 8,7 C 8,3 C 5,0 C 96 % 998,0 hPa 0,0 l/m 0 min 0 min 0 W/m 12,9 km/h (3 Bft) 95,74 %
27.09.2022 07:14 8,7 C 8,3 C 5,0 C 96 % 998,0 hPa 0,0 l/m 0 min 0 min 0 W/m 16,1 km/h (3 Bft) 97,83 %
27.09.2022 07:16 8,7 C 8,3 C 5,0 C 96 % 997,9 hPa 0,0 l/m 0 min 0 min 0 W/m 12,9 km/h (3 Bft) 93,62 %
27.09.2022 07:18 8,7 C 8,3 C 5,0 C 96 % 997,9 hPa 0,0 l/m 0 min 0 min 0 W/m 6,4 km/h (2 Bft) 97,87 %
27.09.2022 07:20 8,7 C 8,3 C 5,0 C 96 % 998,0 hPa 0,0 l/m 0 min 0 min 0 W/m 22,5 km/h (4 Bft) 97,87 %
27.09.2022 07:22 8,7 C 8,3 C 5,0 C 96 % 998,0 hPa 0,0 l/m 0 min 0 min 0 W/m 19,3 km/h (3 Bft) 93,62 %
27.09.2022 07:24 8,7 C 8,3 C 5,0 C 96 % 998,0 hPa 0,0 l/m 0 min 0 min 0 W/m 12,9 km/h (3 Bft) 97,87 %
27.09.2022 07:26 8,7 C 8,3 C 5,0 C 96 % 998,1 hPa 0,0 l/m 0 min 0 min 0 W/m 12,9 km/h (3 Bft) 95,65 %
27.09.2022 07:28 8,7 C 8,3 C 5,0 C 96 % 998,0 hPa 0,0 l/m 0 min 0 min 0 W/m 12,9 km/h (3 Bft) 97,87 %
27.09.2022 07:30 8,7 C 8,3 C 5,0 C 96 % 998,0 hPa 0,0 l/m 0 min 0 min 0 W/m 19,3 km/h (3 Bft) 93,62 %
27.09.2022 07:32 8,7 C 8,3 C 5,0 C 96 % 998,0 hPa 0,0 l/m 0 min 0 min 0 W/m 9,7 km/h (2 Bft) 97,87 %
27.09.2022 07:34 8,7 C 8,3 C 5,0 C 96 % 997,9 hPa 0,0 l/m 0 min 0 min 1 W/m 16,1 km/h (3 Bft) 97,87 %
27.09.2022 07:36 8,7 C 8,3 C 5,0 C 96 % 998,0 hPa 0,0 l/m 0 min 0 min 5 W/m 12,9 km/h (3 Bft) 97,87 %
27.09.2022 07:38 8,7 C 8,3 C 5,0 C 96 % 998,0 hPa 0,0 l/m 0 min 0 min 6 W/m 9,7 km/h (2 Bft) 97,83 %
27.09.2022 07:40 8,7 C 8,3 C 5,0 C 96 % 998,1 hPa 0,0 l/m 0 min 0 min 8 W/m 12,9 km/h (3 Bft) 97,87 %
27.09.2022 07:42 8,7 C 8,3 C 5,0 C 96 % 998,1 hPa 0,0 l/m 0 min 0 min 9 W/m 12,9 km/h (3 Bft) 100,00 %
27.09.2022 07:44 8,8 C 8,3 C 5,0 C 96 % 998,1 hPa 0,0 l/m 0 min 0 min 9 W/m 9,7 km/h (2 Bft) 100,00 %
27.09.2022 07:46 8,8 C 8,3 C 5,0 C 96 % 998,1 hPa 0,0 l/m 0 min 0 min 10 W/m 12,9 km/h (3 Bft) 100,00 %
27.09.2022 07:48 8,8 C 8,3 C 5,0 C 96 % 998,0 hPa 0,0 l/m 0 min 0 min 11 W/m 12,9 km/h (3 Bft) 97,87 %
27.09.2022 07:50 8,8 C 8,3 C 5,0 C 96 % 998,1 hPa 0,0 l/m 0 min 0 min 12 W/m 12,9 km/h (3 Bft) 100,00 %
27.09.2022 07:52 8,8 C 8,3 C 5,0 C 96 % 998,1 hPa 0,0 l/m 0 min 0 min 14 W/m 6,4 km/h (2 Bft) 100,00 %
27.09.2022 07:54 8,8 C 8,3 C 5,0 C 95 % 998,1 hPa 0,0 l/m 0 min 0 min 14 W/m 16,1 km/h (3 Bft) 100,00 %
27.09.2022 07:56 8,8 C 8,3 C 5,0 C 95 % 998,1 hPa 0,0 l/m 0 min 0 min 14 W/m 9,7 km/h (2 Bft) 97,87 %
27.09.2022 07:58 8,8 C 8,3 C 5,0 C 96 % 998,2 hPa 0,0 l/m 0 min 0 min 14 W/m 12,9 km/h (3 Bft) 100,00 %
27.09.2022 08:00 8,8 C 8,3 C 5,0 C 96 % 998,2 hPa 0,0 l/m 0 min 0 min 12 W/m 9,7 km/h (2 Bft) 100,00 %
27.09.2022 08:02 8,8 C 8,3 C 5,0 C 96 % 998,3 hPa 0,0 l/m 0 min 0 min 12 W/m 9,7 km/h (2 Bft) 100,00 %
27.09.2022 08:04 8,8 C 8,3 C 5,0 C 96 % 998,3 hPa 0,0 l/m 0 min 0 min 13 W/m 12,9 km/h (3 Bft) 100,00 %
27.09.2022 08:06 8,8 C 8,3 C 5,0 C 95 % 998,3 hPa 0,0 l/m 0 min 0 min 14 W/m 6,4 km/h (2 Bft) 100,00 %
27.09.2022 08:08 8,8 C 8,3 C 5,0 C 95 % 998,2 hPa 0,0 l/m 0 min 0 min 16 W/m 12,9 km/h (3 Bft) 100,00 %
27.09.2022 08:10 8,8 C 8,3 C 5,0 C 95 % 998,2 hPa 0,0 l/m 0 min 0 min 18 W/m 16,1 km/h (3 Bft) 100,00 %
27.09.2022 08:12 8,9 C 8,3 C 5,0 C 95 % 998,3 hPa 0,0 l/m 0 min 0 min 21 W/m 16,1 km/h (3 Bft) 100,00 %
27.09.2022 08:14 8,9 C 8,3 C 5,0 C 95 % 998,2 hPa 0,0 l/m 0 min 0 min 23 W/m 12,9 km/h (3 Bft) 100,00 %
27.09.2022 08:16 8,9 C 8,3 C 5,6 C 95 % 998,3 hPa 0,0 l/m 0 min 0 min 26 W/m 12,9 km/h (3 Bft) 100,00 %
27.09.2022 08:18 8,9 C 8,3 C 5,0 C 95 % 998,3 hPa 0,0 l/m 0 min 0 min 29 W/m 6,4 km/h (2 Bft) 97,87 %
27.09.2022 08:20 8,9 C 8,3 C 5,0 C 95 % 998,3 hPa 0,0 l/m 0 min 0 min 31 W/m 12,9 km/h (3 Bft) 100,00 %
27.09.2022 08:22 8,9 C 8,3 C 5,6 C 95 % 998,3 hPa 0,0 l/m 0 min 0 min 33 W/m 9,7 km/h (2 Bft) 100,00 %
27.09.2022 08:24 8,9 C 8,3 C 5,6 C 95 % 998,4 hPa 0,0 l/m 0 min 2 min 35 W/m 6,4 km/h (2 Bft) 95,65 %
27.09.2022 08:26 9,0 C 8,3 C 5,6 C 95 % 998,4 hPa 0,0 l/m 0 min 0 min 37 W/m 29,0 km/h (5 Bft) 97,87 %
27.09.2022 08:28 9,0 C 8,3 C 5,6 C 95 % 998,4 hPa 0,0 l/m 0 min 0 min 37 W/m 9,7 km/h (2 Bft) 100,00 %
27.09.2022 08:30 9,0 C 8,3 C 5,6 C 95 % 998,4 hPa 0,0 l/m 0 min 0 min 37 W/m 6,4 km/h (2 Bft) 100,00 %
27.09.2022 08:32 9,0 C 8,3 C 5,6 C 95 % 998,4 hPa 0,0 l/m 0 min 0 min 35 W/m 25,7 km/h (4 Bft) 95,74 %
27.09.2022 08:34 9,0 C 8,3 C 5,6 C 95 % 998,4 hPa 0,0 l/m 0 min 2 min 34 W/m 12,9 km/h (3 Bft) 95,74 %
27.09.2022 08:36 9,0 C 8,3 C 5,6 C 95 % 998,4 hPa 0,0 l/m 0 min 0 min 33 W/m 12,9 km/h (3 Bft) 97,83 %
27.09.2022 08:38 9,0 C 8,3 C 5,6 C 95 % 998,4 hPa 0,0 l/m 0 min 0 min 32 W/m 12,9 km/h (3 Bft) 95,74 %
27.09.2022 08:40 9,1 C 8,3 C 5,6 C 95 % 998,4 hPa 0,0 l/m 0 min 0 min 32 W/m 12,9 km/h (3 Bft) 97,87 %
27.09.2022 08:42 9,1 C 8,3 C 5,6 C 95 % 998,4 hPa 0,0 l/m 0 min 0 min 31 W/m 9,7 km/h (2 Bft) 97,87 %
27.09.2022 08:44 9,1 C 8,3 C 5,6 C 95 % 998,4 hPa 0,0 l/m 0 min 0 min 30 W/m 16,1 km/h (3 Bft) 97,87 %
27.09.2022 08:46 9,1 C 8,3 C 5,6 C 95 % 998,5 hPa 0,0 l/m 0 min 0 min 29 W/m 12,9 km/h (3 Bft) 97,87 %
27.09.2022 08:48 9,1 C 8,3 C 5,6 C 95 % 998,4 hPa 0,0 l/m 0 min 0 min 27 W/m 16,1 km/h (3 Bft) 95,74 %
27.09.2022 08:50 9,1 C 8,3 C 5,6 C 95 % 998,4 hPa 0,0 l/m 0 min 0 min 25 W/m 12,9 km/h (3 Bft) 97,83 %
27.09.2022 08:52 9,1 C 8,3 C 5,6 C 95 % 998,5 hPa 0,0 l/m 0 min 0 min 25 W/m 16,1 km/h (3 Bft) 97,87 %
27.09.2022 08:54 9,1 C 8,3 C 5,6 C 95 % 998,5 hPa 0,0 l/m 0 min 0 min 25 W/m 16,1 km/h (3 Bft) 97,87 %
27.09.2022 08:56 9,1 C 8,3 C 5,6 C 95 % 998,5 hPa 0,0 l/m 0 min 0 min 26 W/m 6,4 km/h (2 Bft) 93,62 %
27.09.2022 08:58 9,1 C 8,3 C 6,1 C 95 % 998,5 hPa 0,0 l/m 0 min 0 min 30 W/m 16,1 km/h (3 Bft) 95,74 %
27.09.2022 09:00 9,1 C 8,3 C 6,1 C 95 % 998,5 hPa 0,0 l/m 0 min 2 min 32 W/m 6,4 km/h (2 Bft) 95,65 %
27.09.2022 09:02 9,1 C 8,3 C 6,1 C 95 % 998,5 hPa 0,0 l/m 0 min 2 min 35 W/m 12,9 km/h (3 Bft) 95,74 %
27.09.2022 09:04 9,1 C 8,3 C 6,1 C 95 % 998,5 hPa 0,0 l/m 0 min 2 min 36 W/m 16,1 km/h (3 Bft) 95,74 %
27.09.2022 09:06 9,1 C 8,9 C 5,6 C 95 % 998,6 hPa 0,0 l/m 0 min 2 min 39 W/m 12,9 km/h (3 Bft) 93,62 %
27.09.2022 09:08 9,1 C 8,9 C 5,6 C 95 % 998,6 hPa 0,0 l/m 0 min 2 min 43 W/m 12,9 km/h (3 Bft) 91,49 %
27.09.2022 09:10 9,1 C 8,9 C 5,6 C 95 % 998,6 hPa 0,0 l/m 0 min 2 min 47 W/m 16,1 km/h (3 Bft) 95,74 %
27.09.2022 09:12 9,1 C 8,9 C 5,6 C 95 % 998,7 hPa 0,0 l/m 0 min 2 min 52 W/m 12,9 km/h (3 Bft) 95,65 %
27.09.2022 09:14 9,1 C 8,9 C 5,6 C 95 % 998,7 hPa 0,0 l/m 0 min 2 min 56 W/m 12,9 km/h (3 Bft) 97,87 %
27.09.2022 09:16 9,2 C 8,9 C 5,6 C 95 % 998,7 hPa 0,0 l/m 0 min 0 min 60 W/m 12,9 km/h (3 Bft) 100,00 %
27.09.2022 09:18 9,2 C 8,9 C 5,6 C 95 % 998,7 hPa 0,0 l/m 0 min 0 min 62 W/m 9,7 km/h (2 Bft) 97,87 %
27.09.2022 09:20 9,2 C 8,9 C 5,6 C 95 % 998,8 hPa 0,0 l/m 0 min 0 min 59 W/m 6,4 km/h (2 Bft) 97,87 %
27.09.2022 09:22 9,2 C 8,9 C 5,6 C 95 % 998,8 hPa 0,0 l/m 0 min 0 min 58 W/m 6,4 km/h (2 Bft) 95,74 %
27.09.2022 09:24 9,2 C 8,9 C 5,6 C 94 % 998,8 hPa 0,0 l/m 0 min 0 min 61 W/m 12,9 km/h (3 Bft) 97,83 %
27.09.2022 09:26 9,2 C 8,9 C 5,6 C 94 % 998,8 hPa 0,0 l/m 0 min 0 min 68 W/m 6,4 km/h (2 Bft) 97,87 %
27.09.2022 09:28 9,2 C 8,9 C 5,6 C 94 % 998,8 hPa 0,0 l/m 0 min 0 min 72 W/m 6,4 km/h (2 Bft) 97,87 %
27.09.2022 09:30 9,2 C 8,9 C 5,6 C 95 % 998,8 hPa 0,0 l/m 0 min 2 min 77 W/m 12,9 km/h (3 Bft) 100,00 %
27.09.2022 09:32 9,2 C 8,9 C 5,6 C 95 % 998,8 hPa 0,0 l/m 0 min 2 min 84 W/m 9,7 km/h (2 Bft) 100,00 %
27.09.2022 09:34 9,2 C 8,9 C 5,6 C 95 % 998,8 hPa 0,0 l/m 0 min 0 min 94 W/m 6,4 km/h (2 Bft) 100,00 %
27.09.2022 09:36 9,3 C 8,9 C 6,1 C 95 % 998,8 hPa 0,0 l/m 0 min 0 min 101 W/m 12,9 km/h (3 Bft) 97,83 %
27.09.2022 09:38 9,3 C 8,9 C 6,1 C 95 % 998,8 hPa 0,0 l/m 0 min 2 min 102 W/m 6,4 km/h (2 Bft) 97,87 %
27.09.2022 09:40 9,3 C 8,9 C 6,1 C 95 % 998,8 hPa 0,0 l/m 0 min 0 min 102 W/m 19,3 km/h (3 Bft) 97,87 %
27.09.2022 09:42 9,2 C 8,9 C 6,1 C 95 % 998,9 hPa 0,0 l/m 0 min 0 min 105 W/m 16,1 km/h (3 Bft) 95,74 %
27.09.2022 09:44 9,2 C 8,9 C 6,1 C 95 % 998,9 hPa 0,0 l/m 0 min 0 min 113 W/m 12,9 km/h (3 Bft) 97,87 %
27.09.2022 09:46 9,2 C 8,9 C 6,1 C 95 % 998,9 hPa 0,0 l/m 0 min 0 min 124 W/m 12,9 km/h (3 Bft) 97,87 %
27.09.2022 09:48 9,3 C 9,4 C 6,1 C 95 % 998,9 hPa 0,0 l/m 0 min 0 min 127 W/m 12,9 km/h (3 Bft) 97,83 %
27.09.2022 09:50 9,3 C 9,4 C 6,1 C 95 % 999,0 hPa 0,0 l/m 0 min 0 min 125 W/m 12,9 km/h (3 Bft) 97,87 %
27.09.2022 09:52 9,3 C 9,4 C 6,1 C 95 % 999,0 hPa 0,0 l/m 0 min 0 min 115 W/m 12,9 km/h (3 Bft) 97,87 %
27.09.2022 09:54 9,3 C 9,4 C 6,1 C 95 % 999,0 hPa 0,0 l/m 0 min 0 min 104 W/m 12,9 km/h (3 Bft) 97,87 %
27.09.2022 09:56 9,3 C 9,4 C 6,1 C 95 % 999,1 hPa 0,0 l/m 0 min 0 min 105 W/m 16,1 km/h (3 Bft) 97,87 %
27.09.2022 09:58 9,4 C 9,4 C 6,1 C 95 % 999,1 hPa 0,0 l/m 0 min 0 min 114 W/m 16,1 km/h (3 Bft) 95,74 %
27.09.2022 10:00 9,3 C 9,4 C 6,1 C 94 % 999,1 hPa 0,0 l/m 0 min 0 min 129 W/m 16,1 km/h (3 Bft) 95,65 %
27.09.2022 10:02 9,4 C 9,4 C 6,7 C 95 % 999,2 hPa 0,0 l/m 0 min 0 min 141 W/m 12,9 km/h (3 Bft) 95,74 %
27.09.2022 10:04 9,4 C 9,4 C 6,7 C 95 % 999,2 hPa 0,0 l/m 0 min 0 min 147 W/m 6,4 km/h (2 Bft) 95,74 %
27.09.2022 10:06 9,5 C 9,4 C 6,7 C 95 % 999,2 hPa 0,0 l/m 0 min 0 min 140 W/m 12,9 km/h (3 Bft) 97,87 %
27.09.2022 10:08 9,6 C 9,4 C 6,7 C 95 % 999,2 hPa 0,0 l/m 0 min 0 min 140 W/m 6,4 km/h (2 Bft) 97,87 %
27.09.2022 10:10 9,6 C 9,4 C 6,7 C 94 % 999,2 hPa 0,0 l/m 0 min 0 min 140 W/m 16,1 km/h (3 Bft) 97,87 %
27.09.2022 10:12 9,6 C 9,4 C 6,7 C 94 % 999,3 hPa 0,0 l/m 0 min 0 min 139 W/m 12,9 km/h (3 Bft) 95,65 %
27.09.2022 10:14 9,6 C 9,4 C 6,7 C 94 % 999,2 hPa 0,0 l/m 0 min 0 min 144 W/m 16,1 km/h (3 Bft) 97,87 %
27.09.2022 10:16 9,6 C 9,4 C 6,7 C 94 % 999,2 hPa 0,0 l/m 0 min 0 min 152 W/m 12,9 km/h (3 Bft) 91,49 %
27.09.2022 10:18 9,6 C 9,4 C 6,7 C 94 % 999,4 hPa 0,0 l/m 0 min 0 min 148 W/m 12,9 km/h (3 Bft) 97,87 %
27.09.2022 10:20 9,7 C 9,4 C 6,7 C 94 % 999,4 hPa 0,0 l/m 0 min 0 min 128 W/m 9,7 km/h (2 Bft) 97,87 %
27.09.2022 10:22 9,7 C 9,4 C 6,7 C 94 % 999,4 hPa 0,0 l/m 0 min 0 min 112 W/m 12,9 km/h (3 Bft) 97,87 %
27.09.2022 10:24 9,7 C 9,4 C 6,7 C 94 % 999,4 hPa 0,0 l/m 0 min 0 min 104 W/m 12,9 km/h (3 Bft) 97,83 %
27.09.2022 10:26 9,7 C 9,4 C 6,7 C 94 % 999,4 hPa 0,0 l/m 0 min 2 min 97 W/m 16,1 km/h (3 Bft) 95,74 %
27.09.2022 10:28 9,7 C 9,4 C 6,7 C 94 % 999,4 hPa 0,0 l/m 0 min 2 min 93 W/m 12,9 km/h (3 Bft) 100,00 %
27.09.2022 10:30 9,7 C 9,4 C 6,7 C 94 % 999,4 hPa 0,0 l/m 0 min 2 min 89 W/m 16,1 km/h (3 Bft) 97,87 %
27.09.2022 10:32 9,7 C 9,4 C 6,7 C 94 % 999,4 hPa 0,0 l/m 0 min 2 min 82 W/m 12,9 km/h (3 Bft) 100,00 %
27.09.2022 10:34 9,7 C 9,4 C 6,7 C 94 % 999,5 hPa 0,0 l/m 0 min 2 min 80 W/m 16,1 km/h (3 Bft) 100,00 %
27.09.2022 10:36 9,7 C 9,4 C 6,1 C 94 % 999,5 hPa 0,0 l/m 0 min 2 min 81 W/m 12,9 km/h (3 Bft) 100,00 %
27.09.2022 10:38 9,7 C 9,4 C 6,1 C 94 % 999,5 hPa 0,0 l/m 0 min 2 min 83 W/m 16,1 km/h (3 Bft) 95,74 %
27.09.2022 10:40 9,7 C 9,4 C 6,1 C 94 % 999,5 hPa 0,0 l/m 0 min 2 min 82 W/m 12,9 km/h (3 Bft) 95,74 %
27.09.2022 10:42 9,7 C 9,4 C 6,1 C 94 % 999,5 hPa 0,0 l/m 0 min 2 min 86 W/m 16,1 km/h (3 Bft) 100,00 %
27.09.2022 10:44 9,7 C 9,4 C 6,1 C 94 % 999,5 hPa 0,0 l/m 0 min 2 min 84 W/m 16,1 km/h (3 Bft) 100,00 %
27.09.2022 10:46 9,7 C 9,4 C 6,1 C 94 % 999,5 hPa 0,0 l/m 0 min 2 min 84 W/m 12,9 km/h (3 Bft) 100,00 %
27.09.2022 10:48 9,7 C 9,4 C 6,1 C 94 % 999,5 hPa 0,2 l/m 0 min 2 min 88 W/m 9,7 km/h (2 Bft) 100,00 %
27.09.2022 10:50 9,7 C 9,4 C 6,1 C 94 % 999,5 hPa 0,0 l/m 0 min 2 min 92 W/m 9,7 km/h (2 Bft) 100,00 %
27.09.2022 10:52 9,7 C 9,4 C 6,1 C 94 % 999,5 hPa 0,0 l/m 0 min 2 min 94 W/m 12,9 km/h (3 Bft) 95,74 %
27.09.2022 10:54 9,7 C 9,4 C 6,1 C 94 % 999,5 hPa 0,0 l/m 0 min 2 min 101 W/m 6,4 km/h (2 Bft) 97,87 %
27.09.2022 10:56 9,7 C 9,4 C 6,1 C 94 % 999,5 hPa 0,0 l/m 0 min 2 min 112 W/m 22,5 km/h (4 Bft) 97,87 %
27.09.2022 10:58 9,7 C 9,4 C 6,1 C 94 % 999,5 hPa 0,0 l/m 0 min 2 min 117 W/m 12,9 km/h (3 Bft) 97,87 %
27.09.2022 11:00 9,7 C 9,4 C 6,1 C 94 % 999,5 hPa 0,0 l/m 0 min 2 min 124 W/m 12,9 km/h (3 Bft) 95,65 %
27.09.2022 11:02 9,7 C 9,4 C 6,1 C 94 % 999,5 hPa 0,0 l/m 0 min 2 min 132 W/m 12,9 km/h (3 Bft) 95,74 %
27.09.2022 11:04 9,7 C 9,4 C 6,1 C 94 % 999,5 hPa 0,0 l/m 0 min 2 min 136 W/m 12,9 km/h (3 Bft) 95,74 %
27.09.2022 11:06 9,7 C 9,4 C 6,1 C 94 % 999,5 hPa 0,0 l/m 0 min 2 min 135 W/m 12,9 km/h (3 Bft) 96,00 %
27.09.2022 11:08 9,8 C 9,4 C 6,1 C 94 % 999,5 hPa 0,2 l/m 0 min 2 min 133 W/m 19,3 km/h (3 Bft) 97,87 %
27.09.2022 11:10 9,8 C 9,4 C 6,1 C 95 % 999,5 hPa 0,0 l/m 0 min 2 min 139 W/m 12,9 km/h (3 Bft) 93,62 %
27.09.2022 11:12 9,8 C 9,4 C 6,1 C 95 % 999,5 hPa 0,0 l/m 0 min 2 min 151 W/m 16,1 km/h (3 Bft) 95,74 %
27.09.2022 11:14 9,8 C 10,0 C 6,1 C 95 % 999,5 hPa 0,0 l/m 0 min 2 min 165 W/m 19,3 km/h (3 Bft) 95,65 %
27.09.2022 11:16 9,9 C 10,0 C 6,1 C 95 % 999,5 hPa 0,0 l/m 0 min 0 min 180 W/m 25,7 km/h (4 Bft) 95,74 %
27.09.2022 11:18 9,9 C 10,0 C 6,1 C 95 % 999,5 hPa 0,0 l/m 0 min 0 min 190 W/m 16,1 km/h (3 Bft) 95,74 %
27.09.2022 11:20 9,9 C 10,0 C 6,1 C 95 % 999,5 hPa 0,0 l/m 0 min 0 min 196 W/m 12,9 km/h (3 Bft) 97,87 %
27.09.2022 11:22 10,1 C 10,0 C 6,7 C 95 % 999,5 hPa 0,0 l/m 0 min 0 min 193 W/m 9,7 km/h (2 Bft) 95,74 %
27.09.2022 11:24 10,1 C 10,0 C 6,7 C 95 % 999,5 hPa 0,0 l/m 0 min 0 min 199 W/m 6,4 km/h (2 Bft) 95,74 %
27.09.2022 11:26 10,1 C 10,6 C 6,7 C 95 % 999,5 hPa 0,0 l/m 0 min 0 min 206 W/m 9,7 km/h (2 Bft) 97,83 %
27.09.2022 11:28 10,1 C 10,6 C 6,7 C 95 % 999,6 hPa 0,0 l/m 0 min 0 min 231 W/m 16,1 km/h (3 Bft) 95,74 %
27.09.2022 11:30 10,2 C 10,6 C 6,7 C 95 % 999,6 hPa 0,0 l/m 0 min 0 min 238 W/m 16,1 km/h (3 Bft) 97,87 %
27.09.2022 11:32 10,2 C 10,6 C 6,7 C 95 % 999,5 hPa 0,0 l/m 0 min 0 min 220 W/m 12,9 km/h (3 Bft) 97,87 %
27.09.2022 11:34 10,3 C 10,6 C 6,7 C 95 % 999,5 hPa 0,0 l/m 0 min 0 min 208 W/m 19,3 km/h (3 Bft) 97,87 %
27.09.2022 11:36 10,3 C 10,6 C 6,7 C 95 % 999,5 hPa 0,0 l/m 0 min 0 min 203 W/m 16,1 km/h (3 Bft) 97,87 %
27.09.2022 11:38 10,3 C 10,6 C 6,7 C 95 % 999,5 hPa 0,0 l/m 0 min 0 min 213 W/m 12,9 km/h (3 Bft) 97,83 %
27.09.2022 11:40 10,4 C 10,6 C 6,7 C 95 % 999,5 hPa 0,0 l/m 0 min 0 min 203 W/m 12,9 km/h (3 Bft) 97,87 %
27.09.2022 11:42 10,4 C 10,6 C 6,7 C 95 % 999,5 hPa 0,0 l/m 0 min 0 min 213 W/m 12,9 km/h (3 Bft) 97,87 %
27.09.2022 11:44 10,5 C 10,6 C 6,7 C 95 % 999,5 hPa 0,0 l/m 0 min 0 min 232 W/m 22,5 km/h (4 Bft) 97,87 %
27.09.2022 11:46 10,5 C 11,1 C 7,2 C 95 % 999,4 hPa 0,0 l/m 2 min 0 min 283 W/m 12,9 km/h (3 Bft) 97,87 %
27.09.2022 11:48 10,6 C 11,1 C 7,2 C 95 % 999,4 hPa 0,0 l/m 2 min 0 min 317 W/m 12,9 km/h (3 Bft) 97,87 %
27.09.2022 11:50 10,6 C 11,7 C 7,2 C 94 % 999,3 hPa 0,0 l/m 2 min 0 min 316 W/m 12,9 km/h (3 Bft) 97,83 %
27.09.2022 11:52 10,7 C 11,7 C 7,2 C 94 % 999,3 hPa 0,0 l/m 2 min 0 min 306 W/m 16,1 km/h (3 Bft) 91,49 %
27.09.2022 11:54 10,8 C 11,7 C 7,2 C 94 % 999,4 hPa 0,0 l/m 0 min 0 min 244 W/m 12,9 km/h (3 Bft) 97,87 %
27.09.2022 11:56 10,8 C 11,7 C 7,2 C 94 % 999,3 hPa 0,0 l/m 0 min 0 min 215 W/m 16,1 km/h (3 Bft) 95,74 %
27.09.2022 11:58 10,9 C 11,1 C 7,2 C 94 % 999,3 hPa 0,0 l/m 0 min 0 min 187 W/m 16,1 km/h (3 Bft) 97,87 %
27.09.2022 12:00 10,8 C 11,1 C 6,7 C 94 % 999,3 hPa 0,0 l/m 0 min 0 min 156 W/m 29,0 km/h (5 Bft) 100,00 %
27.09.2022 12:02 10,8 C 11,1 C 7,2 C 93 % 999,3 hPa 0,0 l/m 0 min 0 min 174 W/m 16,1 km/h (3 Bft) 97,83 %
27.09.2022 12:04 10,8 C 11,1 C 7,2 C 93 % 999,3 hPa 0,0 l/m 0 min 0 min 189 W/m 12,9 km/h (3 Bft) 100,00 %
27.09.2022 12:07 10,9 C 11,1 C 6,7 C 93 % 999,3 hPa 0,0 l/m 0 min 0 min 185 W/m 12,9 km/h (3 Bft) 100,00 %
27.09.2022 12:08 10,9 C 10,6 C 6,7 C 93 % 999,3 hPa 0,0 l/m 0 min 1 min 182 W/m 12,9 km/h (3 Bft) 100,00 %
27.09.2022 12:10 10,8 C 10,6 C 6,7 C 93 % 999,3 hPa 0,0 l/m 0 min 2 min 182 W/m 29,0 km/h (5 Bft) 100,00 %
27.09.2022 12:12 10,8 C 10,6 C 6,7 C 93 % 999,3 hPa 0,0 l/m 0 min 2 min 181 W/m 22,5 km/h (4 Bft) 100,00 %
27.09.2022 12:14 10,8 C 10,6 C 6,7 C 93 % 999,3 hPa 0,0 l/m 0 min 0 min 180 W/m 12,9 km/h (3 Bft) 100,00 %
27.09.2022 12:16 10,8 C 10,6 C 6,7 C 93 % 999,3 hPa 0,0 l/m 0 min 0 min 157 W/m 12,9 km/h (3 Bft) 100,00 %
27.09.2022 12:18 10,8 C 10,6 C 6,7 C 93 % 999,2 hPa 0,0 l/m 0 min 0 min 160 W/m 16,1 km/h (3 Bft) 100,00 %
27.09.2022 12:20 10,8 C 10,6 C 6,7 C 93 % 999,3 hPa 0,0 l/m 0 min 0 min 155 W/m 12,9 km/h (3 Bft) 97,87 %
27.09.2022 12:22 10,8 C 10,6 C 6,7 C 93 % 999,3 hPa 0,0 l/m 0 min 0 min 183 W/m 19,3 km/h (3 Bft) 100,00 %
27.09.2022 12:24 10,8 C 10,6 C 6,7 C 92 % 999,3 hPa 0,0 l/m 0 min 0 min 183 W/m 6,4 km/h (2 Bft) 97,83 %
27.09.2022 12:26 10,7 C 10,6 C 6,7 C 92 % 999,3 hPa 0,0 l/m 0 min 2 min 177 W/m 29,0 km/h (5 Bft) 100,00 %
27.09.2022 12:28 10,7 C 10,6 C 6,7 C 92 % 999,3 hPa 0,0 l/m 0 min 2 min 171 W/m 12,9 km/h (3 Bft) 100,00 %
27.09.2022 12:30 10,7 C 10,6 C 6,7 C 92 % 999,2 hPa 0,0 l/m 0 min 2 min 171 W/m 12,9 km/h (3 Bft) 100,00 %
27.09.2022 12:32 10,7 C 10,6 C 6,7 C 92 % 999,2 hPa 0,0 l/m 0 min 2 min 163 W/m 12,9 km/h (3 Bft) 95,74 %
27.09.2022 12:34 10,7 C 10,6 C 6,7 C 92 % 999,3 hPa 0,0 l/m 0 min 2 min 151 W/m 6,4 km/h (2 Bft) 95,74 %
27.09.2022 12:36 10,7 C 10,6 C 6,7 C 93 % 999,2 hPa 0,0 l/m 0 min 2 min 137 W/m 16,1 km/h (3 Bft) 97,83 %
27.09.2022 12:38 10,7 C 10,6 C 6,7 C 93 % 999,2 hPa 0,0 l/m 0 min 2 min 135 W/m 12,9 km/h (3 Bft) 95,74 %
27.09.2022 12:40 10,7 C 10,6 C 6,7 C 93 % 999,3 hPa 0,0 l/m 0 min 2 min 155 W/m 16,1 km/h (3 Bft) 97,87 %
27.09.2022 12:42 10,7 C 10,6 C 6,7 C 93 % 999,2 hPa 0,0 l/m 0 min 2 min 174 W/m 12,9 km/h (3 Bft) 97,87 %
27.09.2022 12:44 10,7 C 10,6 C 6,7 C 93 % 999,2 hPa 0,0 l/m 0 min 0 min 182 W/m 12,9 km/h (3 Bft) 95,74 %
27.09.2022 12:46 10,7 C 10,6 C 6,7 C 93 % 999,2 hPa 0,0 l/m 0 min 2 min 168 W/m 6,4 km/h (2 Bft) 95,74 %
27.09.2022 12:48 10,7 C 10,6 C 7,2 C 93 % 999,2 hPa 0,0 l/m 0 min 2 min 177 W/m 12,9 km/h (3 Bft) 93,48 %
27.09.2022 12:50 10,7 C 10,6 C 6,7 C 93 % 999,2 hPa 0,0 l/m 0 min 0 min 202 W/m 16,1 km/h (3 Bft) 91,49 %
27.09.2022 12:52 10,7 C 10,6 C 6,7 C 93 % 999,2 hPa 0,0 l/m 0 min 0 min 199 W/m 19,3 km/h (3 Bft) 95,74 %
27.09.2022 12:54 10,6 C 10,6 C 6,7 C 93 % 999,2 hPa 0,0 l/m 0 min 0 min 211 W/m 22,5 km/h (4 Bft) 95,74 %
27.09.2022 12:56 10,6 C 10,6 C 6,7 C 93 % 999,2 hPa 0,0 l/m 0 min 0 min 220 W/m 25,7 km/h (4 Bft) 95,74 %
27.09.2022 12:58 10,6 C 10,6 C 6,7 C 93 % 999,2 hPa 0,0 l/m 0 min 0 min 239 W/m 19,3 km/h (3 Bft) 95,74 %
27.09.2022 13:00 10,6 C 11,1 C 7,2 C 93 % 999,2 hPa 0,0 l/m 0 min 0 min 282 W/m 16,1 km/h (3 Bft) 95,65 %
27.09.2022 13:02 10,7 C 11,1 C 7,2 C 93 % 999,2 hPa 0,0 l/m 0 min 0 min 282 W/m 16,1 km/h (3 Bft) 93,62 %
27.09.2022 13:04 10,7 C 11,1 C 7,2 C 93 % 999,3 hPa 0,0 l/m 0 min 0 min 280 W/m 12,9 km/h (3 Bft) 97,87 %
27.09.2022 13:06 10,8 C 11,7 C 7,2 C 93 % 999,2 hPa 0,0 l/m 0 min 0 min 286 W/m 9,7 km/h (2 Bft) 95,92 %
27.09.2022 13:08 10,9 C 11,7 C 7,2 C 93 % 999,2 hPa 0,0 l/m 0 min 0 min 271 W/m 19,3 km/h (3 Bft) 93,48 %
27.09.2022 13:10 10,9 C 11,7 C 7,2 C 93 % 999,2 hPa 0,0 l/m 0 min 0 min 254 W/m 16,1 km/h (3 Bft) 95,74 %
27.09.2022 13:12 11,1 C 11,7 C 7,8 C 93 % 999,2 hPa 0,0 l/m 0 min 0 min 201 W/m 12,9 km/h (3 Bft) 95,74 %
27.09.2022 13:14 11,1 C 11,7 C 7,8 C 93 % 999,2 hPa 0,0 l/m 0 min 0 min 166 W/m 9,7 km/h (2 Bft) 93,62 %
27.09.2022 13:16 11,1 C 11,1 C 7,8 C 93 % 999,2 hPa 0,0 l/m 0 min 0 min 179 W/m 19,3 km/h (3 Bft) 95,74 %
27.09.2022 13:18 11,1 C 11,1 C 7,8 C 93 % 999,1 hPa 0,0 l/m 0 min 0 min 171 W/m 16,1 km/h (3 Bft) 95,74 %
27.09.2022 13:20 11,1 C 11,1 C 7,8 C 92 % 999,2 hPa 0,0 l/m 0 min 0 min 156 W/m 12,9 km/h (3 Bft) 97,83 %
27.09.2022 13:22 11,1 C 11,1 C 7,8 C 92 % 999,2 hPa 0,0 l/m 0 min 0 min 199 W/m 12,9 km/h (3 Bft) 100,00 %
27.09.2022 13:24 11,1 C 11,1 C 8,3 C 92 % 999,2 hPa 0,0 l/m 0 min 0 min 226 W/m 12,9 km/h (3 Bft) 100,00 %
27.09.2022 13:26 11,1 C 11,1 C 8,3 C 92 % 999,1 hPa 0,0 l/m 0 min 0 min 182 W/m 16,1 km/h (3 Bft) 100,00 %
27.09.2022 13:28 11,1 C 11,1 C 7,8 C 92 % 999,1 hPa 0,0 l/m 0 min 0 min 139 W/m 12,9 km/h (3 Bft) 97,87 %
27.09.2022 13:30 11,0 C 11,1 C 7,8 C 91 % 999,1 hPa 0,0 l/m 0 min 2 min 107 W/m 22,5 km/h (4 Bft) 97,87 %
27.09.2022 13:32 11,0 C 11,1 C 7,8 C 91 % 999,1 hPa 0,0 l/m 0 min 0 min 120 W/m 12,9 km/h (3 Bft) 100,00 %
27.09.2022 13:34 11,1 C 11,1 C 7,8 C 91 % 999,1 hPa 0,0 l/m 0 min 0 min 190 W/m 12,9 km/h (3 Bft) 100,00 %
27.09.2022 13:36 11,1 C 11,1 C 7,8 C 91 % 999,1 hPa 0,0 l/m 0 min 0 min 248 W/m 9,7 km/h (2 Bft) 100,00 %
27.09.2022 13:38 11,1 C 11,1 C 7,8 C 92 % 999,1 hPa 0,0 l/m 0 min 0 min 197 W/m 9,7 km/h (2 Bft) 100,00 %
27.09.2022 13:40 11,1 C 11,1 C 7,8 C 92 % 999,0 hPa 0,0 l/m 0 min 0 min 143 W/m 12,9 km/h (3 Bft) 100,00 %
27.09.2022 13:42 11,1 C 11,1 C 7,8 C 91 % 999,0 hPa 0,0 l/m 0 min 0 min 123 W/m 16,1 km/h (3 Bft) 100,00 %
27.09.2022 13:44 11,1 C 10,6 C 7,8 C 91 % 999,0 hPa 0,0 l/m 0 min 0 min 146 W/m 12,9 km/h (3 Bft) 100,00 %
27.09.2022 13:46 11,1 C 11,1 C 7,8 C 91 % 999,0 hPa 0,0 l/m 0 min 0 min 186 W/m 9,7 km/h (2 Bft) 100,00 %
27.09.2022 13:48 11,1 C 11,1 C 7,8 C 91 % 999,0 hPa 0,0 l/m 0 min 0 min 232 W/m 19,3 km/h (3 Bft) 100,00 %
27.09.2022 13:50 11,1 C 11,1 C 7,8 C 91 % 999,0 hPa 0,0 l/m 0 min 0 min 238 W/m 22,5 km/h (4 Bft) 97,87 %
27.09.2022 13:52 11,1 C 11,1 C 7,8 C 91 % 999,0 hPa 0,0 l/m 0 min 0 min 173 W/m 22,5 km/h (4 Bft) 100,00 %
27.09.2022 13:54 11,1 C 11,1 C 7,8 C 91 % 999,0 hPa 0,0 l/m 0 min 2 min 145 W/m 16,1 km/h (3 Bft) 97,87 %
27.09.2022 13:56 11,1 C 10,6 C 7,8 C 91 % 999,0 hPa 0,0 l/m 0 min 0 min 154 W/m 16,1 km/h (3 Bft) 97,83 %
27.09.2022 13:58 11,1 C 11,1 C 7,8 C 91 % 998,9 hPa 0,0 l/m 0 min 0 min 180 W/m 16,1 km/h (3 Bft) 97,87 %
27.09.2022 14:00 11,1 C 11,1 C 7,8 C 91 % 998,9 hPa 0,0 l/m 0 min 0 min 248 W/m 12,9 km/h (3 Bft) 100,00 %
27.09.2022 14:02 11,1 C 11,7 C 7,8 C 91 % 998,8 hPa 0,0 l/m 0 min 0 min 273 W/m 12,9 km/h (3 Bft) 100,00 %
27.09.2022 14:04 11,2 C 11,7 C 8,3 C 91 % 998,9 hPa 0,0 l/m 0 min 0 min 278 W/m 12,9 km/h (3 Bft) 97,87 %
27.09.2022 14:06 11,2 C 12,2 C 8,3 C 91 % 999,0 hPa 0,0 l/m 0 min 0 min 287 W/m 9,7 km/h (2 Bft) 95,74 %
27.09.2022 14:08 11,2 C 11,7 C 8,3 C 91 % 998,8 hPa 0,0 l/m 0 min 0 min 244 W/m 19,3 km/h (3 Bft) 97,83 %
27.09.2022 14:10 11,2 C 11,1 C 8,3 C 91 % 998,8 hPa 0,0 l/m 0 min 0 min 165 W/m 12,9 km/h (3 Bft) 97,87 %
27.09.2022 14:12 11,2 C 11,1 C 7,8 C 91 % 999,0 hPa 0,0 l/m 0 min 2 min 114 W/m 22,5 km/h (4 Bft) 95,74 %
27.09.2022 14:14 11,2 C 11,1 C 7,8 C 90 % 998,9 hPa 0,0 l/m 0 min 2 min 145 W/m 16,1 km/h (3 Bft) 97,87 %
27.09.2022 14:16 11,2 C 11,7 C 7,8 C 90 % 999,0 hPa 0,0 l/m 0 min 0 min 209 W/m 16,1 km/h (3 Bft) 97,87 %
27.09.2022 14:18 11,2 C 11,7 C 7,8 C 90 % 999,0 hPa 0,0 l/m 0 min 0 min 265 W/m 22,5 km/h (4 Bft) 97,87 %
27.09.2022 14:20 11,3 C 11,7 C 7,8 C 91 % 999,0 hPa 0,0 l/m 0 min 2 min 107 W/m 38,6 km/h (5 Bft) 97,83 %
27.09.2022 14:22 11,1 C 10,6 C 7,2 C 90 % 999,0 hPa 0,0 l/m 0 min 2 min 60 W/m 29,0 km/h (5 Bft) 95,74 %
27.09.2022 14:24 10,9 C 10,0 C 7,2 C 89 % 999,0 hPa 0,0 l/m 0 min 2 min 79 W/m 16,1 km/h (3 Bft) 93,62 %
27.09.2022 14:26 10,8 C 10,0 C 6,7 C 89 % 999,0 hPa 0,0 l/m 0 min 2 min 89 W/m 22,5 km/h (4 Bft) 97,87 %
27.09.2022 14:28 10,6 C 10,0 C 6,7 C 89 % 999,1 hPa 0,0 l/m 0 min 0 min 96 W/m 22,5 km/h (4 Bft) 97,87 %
27.09.2022 14:30 10,6 C 10,0 C 6,7 C 89 % 999,1 hPa 0,0 l/m 0 min 0 min 124 W/m 35,4 km/h (5 Bft) 97,87 %
27.09.2022 14:32 10,5 C 10,0 C 6,7 C 89 % 999,1 hPa 0,0 l/m 0 min 0 min 185 W/m 19,3 km/h (3 Bft) 97,83 %
27.09.2022 14:34 10,4 C 10,6 C 7,2 C 89 % 999,1 hPa 0,0 l/m 0 min 0 min 233 W/m 12,9 km/h (3 Bft) 97,87 %
27.09.2022 14:36 10,5 C 10,6 C 7,2 C 90 % 999,1 hPa 0,0 l/m 0 min 0 min 243 W/m 12,9 km/h (3 Bft) 97,87 %
27.09.2022 14:38 10,6 C 10,6 C 7,2 C 90 % 999,1 hPa 0,0 l/m 0 min 0 min 242 W/m 16,1 km/h (3 Bft) 95,74 %
27.09.2022 14:40 10,6 C 11,1 C 7,8 C 90 % 999,1 hPa 0,0 l/m 0 min 0 min 226 W/m 12,9 km/h (3 Bft) 97,87 %
27.09.2022 14:42 10,6 C 10,6 C 7,8 C 90 % 999,1 hPa 0,0 l/m 0 min 0 min 195 W/m 16,1 km/h (3 Bft) 97,87 %
27.09.2022 14:44 10,6 C 10,6 C 7,8 C 90 % 999,0 hPa 0,0 l/m 0 min 0 min 165 W/m 16,1 km/h (3 Bft) 95,65 %
27.09.2022 14:46 10,7 C 10,6 C 7,8 C 90 % 999,1 hPa 0,0 l/m 0 min 0 min 133 W/m 12,9 km/h (3 Bft) 95,74 %
27.09.2022 14:48 10,7 C 10,6 C 7,2 C 90 % 999,1 hPa 0,0 l/m 0 min 2 min 117 W/m 16,1 km/h (3 Bft) 95,74 %
27.09.2022 14:50 10,7 C 10,6 C 7,2 C 90 % 999,1 hPa 0,0 l/m 0 min 0 min 125 W/m 9,7 km/h (2 Bft) 95,74 %
27.09.2022 14:52 10,6 C 10,6 C 7,2 C 90 % 999,1 hPa 0,0 l/m 0 min 0 min 135 W/m 12,9 km/h (3 Bft) 93,62 %
27.09.2022 14:54 10,6 C 10,6 C 7,2 C 90 % 999,1 hPa 0,0 l/m 0 min 0 min 160 W/m 6,4 km/h (2 Bft) 95,74 %
27.09.2022 14:56 10,6 C 10,6 C 7,2 C 90 % 999,1 hPa 0,0 l/m 0 min 0 min 214 W/m 6,4 km/h (2 Bft) 95,65 %
27.09.2022 14:58 10,7 C 11,1 C 7,8 C 90 % 999,1 hPa 0,0 l/m 0 min 0 min 243 W/m 6,4 km/h (2 Bft) 95,74 %
27.09.2022 15:00 10,7 C 11,1 C 7,8 C 90 % 999,2 hPa 0,0 l/m 0 min 0 min 265 W/m 12,9 km/h (3 Bft) 93,62 %
27.09.2022 15:02 10,8 C 11,7 C 7,8 C 90 % 999,2 hPa 0,0 l/m 2 min 0 min 271 W/m 12,9 km/h (3 Bft) 95,74 %
27.09.2022 15:04 10,8 C 11,7 C 7,8 C 90 % 999,2 hPa 0,0 l/m 0 min 0 min 246 W/m 16,1 km/h (3 Bft) 97,87 %
27.09.2022 15:06 10,8 C 11,1 C 7,8 C 90 % 999,2 hPa 0,0 l/m 0 min 0 min 216 W/m 16,1 km/h (3 Bft) 97,87 %
27.09.2022 15:08 10,8 C 11,1 C 7,8 C 90 % 999,2 hPa 0,0 l/m 0 min 0 min 237 W/m 12,9 km/h (3 Bft) 97,83 %
27.09.2022 15:10 10,8 C 11,1 C 7,8 C 89 % 999,2 hPa 0,0 l/m 2 min 0 min 282 W/m 12,9 km/h (3 Bft) 97,87 %
27.09.2022 15:12 10,9 C 11,7 C 7,8 C 89 % 999,1 hPa 0,0 l/m 2 min 0 min 339 W/m 12,9 km/h (3 Bft) 97,87 %
27.09.2022 15:14 10,9 C 11,7 C 7,8 C 89 % 999,1 hPa 0,0 l/m 2 min 0 min 332 W/m 16,1 km/h (3 Bft) 97,87 %
27.09.2022 15:16 10,9 C 11,7 C 7,8 C 89 % 999,0 hPa 0,0 l/m 2 min 0 min 334 W/m 16,1 km/h (3 Bft) 93,62 %
27.09.2022 15:18 11,0 C 11,7 C 8,3 C 89 % 999,0 hPa 0,0 l/m 2 min 0 min 336 W/m 16,1 km/h (3 Bft) 100,00 %
27.09.2022 15:20 11,1 C 12,2 C 8,3 C 89 % 999,0 hPa 0,0 l/m 2 min 0 min 349 W/m 12,9 km/h (3 Bft) 97,83 %
27.09.2022 15:22 11,1 C 11,7 C 8,3 C 88 % 999,0 hPa 0,0 l/m 2 min 0 min 318 W/m 16,1 km/h (3 Bft) 97,87 %
27.09.2022 15:24 11,2 C 11,7 C 8,3 C 88 % 999,0 hPa 0,0 l/m 2 min 0 min 314 W/m 12,9 km/h (3 Bft) 97,87 %
27.09.2022 15:26 11,2 C 11,7 C 8,3 C 88 % 999,0 hPa 0,0 l/m 2 min 0 min 289 W/m 12,9 km/h (3 Bft) 95,74 %
27.09.2022 15:28 11,3 C 12,2 C 8,3 C 87 % 999,0 hPa 0,0 l/m 2 min 0 min 262 W/m 12,9 km/h (3 Bft) 97,87 %
27.09.2022 15:30 11,3 C 12,2 C 8,3 C 87 % 999,0 hPa 0,0 l/m 2 min 0 min 275 W/m 9,7 km/h (2 Bft) 97,87 %
27.09.2022 15:32 11,4 C 12,2 C 8,3 C 87 % 999,1 hPa 0,0 l/m 2 min 0 min 344 W/m 12,9 km/h (3 Bft) 97,83 %
27.09.2022 15:34 11,4 C 12,2 C 8,3 C 87 % 999,0 hPa 0,0 l/m 2 min 0 min 293 W/m 12,9 km/h (3 Bft) 97,87 %
27.09.2022 15:36 11,5 C 12,2 C 8,3 C 87 % 999,1 hPa 0,0 l/m 2 min 0 min 264 W/m 9,7 km/h (2 Bft) 97,87 %
27.09.2022 15:38 11,6 C 12,2 C 8,3 C 86 % 999,1 hPa 0,0 l/m 2 min 0 min 254 W/m 6,4 km/h (2 Bft) 97,87 %
27.09.2022 15:40 11,6 C 12,2 C 8,3 C 86 % 999,0 hPa 0,0 l/m 2 min 0 min 256 W/m 9,7 km/h (2 Bft) 97,87 %
27.09.2022 15:42 11,6 C 12,2 C 8,3 C 85 % 999,0 hPa 0,0 l/m 2 min 0 min 264 W/m 16,1 km/h (3 Bft) 95,74 %
27.09.2022 15:44 11,6 C 11,7 C 8,3 C 85 % 999,0 hPa 0,0 l/m 2 min 0 min 274 W/m 12,9 km/h (3 Bft) 95,65 %
27.09.2022 15:46 11,6 C 12,2 C 8,3 C 84 % 999,0 hPa 0,0 l/m 2 min 0 min 325 W/m 16,1 km/h (3 Bft) 97,87 %
27.09.2022 15:48 11,6 C 12,2 C 8,3 C 84 % 998,9 hPa 0,0 l/m 2 min 0 min 374 W/m 9,7 km/h (2 Bft) 97,87 %
27.09.2022 15:50 11,7 C 12,2 C 8,9 C 84 % 999,0 hPa 0,0 l/m 2 min 0 min 429 W/m 12,9 km/h (3 Bft) 97,87 %
27.09.2022 15:52 11,7 C 12,8 C 8,9 C 84 % 999,0 hPa 0,0 l/m 2 min 0 min 523 W/m 9,7 km/h (2 Bft) 97,87 %
27.09.2022 15:54 11,8 C 12,8 C 8,9 C 84 % 998,9 hPa 0,0 l/m 2 min 0 min 573 W/m 16,1 km/h (3 Bft) 97,87 %
27.09.2022 15:56 11,9 C 12,2 C 8,9 C 83 % 998,9 hPa 0,0 l/m 2 min 0 min 509 W/m 12,9 km/h (3 Bft) 97,83 %
27.09.2022 15:58 11,9 C 12,2 C 8,9 C 83 % 998,9 hPa 0,0 l/m 2 min 0 min 390 W/m 9,7 km/h (2 Bft) 97,87 %
27.09.2022 16:00 11,9 C 12,2 C 8,9 C 83 % 998,9 hPa 0,0 l/m 0 min 0 min 190 W/m 12,9 km/h (3 Bft) 97,87 %
27.09.2022 16:02 11,9 C 12,2 C 8,3 C 83 % 999,0 hPa 0,0 l/m 2 min 0 min 422 W/m 12,9 km/h (3 Bft) 100,00 %
27.09.2022 16:04 11,9 C 12,2 C 8,3 C 82 % 998,9 hPa 0,0 l/m 2 min 0 min 404 W/m 9,7 km/h (2 Bft) 100,00 %
27.09.2022 16:06 12,0 C 12,2 C 8,3 C 83 % 999,0 hPa 0,0 l/m 2 min 0 min 393 W/m 12,9 km/h (3 Bft) 100,00 %
27.09.2022 16:08 12,1 C 12,2 C 8,9 C 83 % 998,9 hPa 0,0 l/m 2 min 0 min 314 W/m 19,3 km/h (3 Bft) 97,83 %
27.09.2022 16:10 12,1 C 12,2 C 8,9 C 83 % 999,0 hPa 0,0 l/m 2 min 0 min 260 W/m 12,9 km/h (3 Bft) 95,74 %
27.09.2022 16:12 12,1 C 12,8 C 8,9 C 83 % 999,0 hPa 0,0 l/m 2 min 0 min 302 W/m 16,1 km/h (3 Bft) 100,00 %
27.09.2022 16:14 12,1 C 12,8 C 8,9 C 83 % 999,0 hPa 0,0 l/m 2 min 0 min 259 W/m 12,9 km/h (3 Bft) 100,00 %
27.09.2022 16:16 12,1 C 12,2 C 8,3 C 84 % 999,0 hPa 0,0 l/m 0 min 0 min 190 W/m 6,4 km/h (2 Bft) 100,00 %
27.09.2022 16:18 12,1 C 12,2 C 8,3 C 83 % 999,0 hPa 0,0 l/m 0 min 0 min 189 W/m 12,9 km/h (3 Bft) 100,00 %
27.09.2022 16:20 12,1 C 12,2 C 8,3 C 83 % 999,0 hPa 0,0 l/m 0 min 0 min 207 W/m 12,9 km/h (3 Bft) 100,00 %
27.09.2022 16:22 12,1 C 12,2 C 8,3 C 83 % 999,0 hPa 0,0 l/m 2 min 0 min 398 W/m 12,9 km/h (3 Bft) 97,87 %
27.09.2022 16:24 12,2 C 12,2 C 8,3 C 84 % 999,0 hPa 0,0 l/m 0 min 0 min 204 W/m 12,9 km/h (3 Bft) 100,00 %
27.09.2022 16:26 12,2 C 12,2 C 8,9 C 84 % 999,0 hPa 0,0 l/m 0 min 0 min 182 W/m 16,1 km/h (3 Bft) 100,00 %
27.09.2022 16:28 12,1 C 11,7 C 8,3 C 83 % 999,0 hPa 0,0 l/m 0 min 0 min 148 W/m 9,7 km/h (2 Bft) 97,87 %
27.09.2022 16:30 12,1 C 11,7 C 8,3 C 83 % 999,0 hPa 0,0 l/m 0 min 0 min 113 W/m 12,9 km/h (3 Bft) 97,83 %
27.09.2022 16:32 12,1 C 11,7 C 8,3 C 83 % 999,0 hPa 0,0 l/m 0 min 0 min 97 W/m 6,4 km/h (2 Bft) 100,00 %
27.09.2022 16:34 12,0 C 11,1 C 8,3 C 83 % 999,0 hPa 0,0 l/m 0 min 0 min 82 W/m 6,4 km/h (2 Bft) 100,00 %
27.09.2022 16:36 11,9 C 11,1 C 8,3 C 83 % 999,0 hPa 0,0 l/m 0 min 0 min 73 W/m 3,2 km/h (1 Bft) 100,00 %
27.09.2022 16:38 11,9 C 11,1 C 8,3 C 83 % 999,0 hPa 0,0 l/m 0 min 0 min 69 W/m 6,4 km/h (2 Bft) 100,00 %
27.09.2022 16:40 11,9 C 11,1 C 8,3 C 83 % 999,0 hPa 0,0 l/m 0 min 2 min 69 W/m 6,4 km/h (2 Bft) 100,00 %
27.09.2022 16:42 11,8 C 11,1 C 7,8 C 84 % 999,0 hPa 0,0 l/m 0 min 0 min 70 W/m 12,9 km/h (3 Bft) 100,00 %
27.09.2022 16:44 11,8 C 11,1 C 7,8 C 84 % 999,0 hPa 0,0 l/m 0 min 0 min 68 W/m 9,7 km/h (2 Bft) 100,00 %
27.09.2022 16:46 11,7 C 11,1 C 7,8 C 84 % 999,1 hPa 0,0 l/m 0 min 0 min 79 W/m 12,9 km/h (3 Bft) 100,00 %
27.09.2022 16:48 11,7 C 11,1 C 7,8 C 84 % 999,1 hPa 0,0 l/m 0 min 0 min 93 W/m 12,9 km/h (3 Bft) 100,00 %
27.09.2022 16:50 11,6 C 11,1 C 7,8 C 85 % 999,1 hPa 0,0 l/m 0 min 0 min 106 W/m 12,9 km/h (3 Bft) 95,74 %
27.09.2022 16:52 11,6 C 11,7 C 7,8 C 85 % 999,1 hPa 0,0 l/m 2 min 0 min 184 W/m 16,1 km/h (3 Bft) 100,00 %
27.09.2022 16:54 11,6 C 11,7 C 7,8 C 86 % 999,1 hPa 0,0 l/m 2 min 0 min 185 W/m 22,5 km/h (4 Bft) 100,00 %
27.09.2022 16:56 11,6 C 11,7 C 7,8 C 86 % 999,2 hPa 0,0 l/m 2 min 0 min 186 W/m 12,9 km/h (3 Bft) 100,00 %
27.09.2022 16:58 11,6 C 11,7 C 7,8 C 86 % 999,2 hPa 0,0 l/m 2 min 0 min 179 W/m 9,7 km/h (2 Bft) 100,00 %
27.09.2022 17:00 11,6 C 11,7 C 7,8 C 86 % 999,2 hPa 0,0 l/m 0 min 0 min 164 W/m 16,1 km/h (3 Bft) 100,00 %
27.09.2022 17:02 11,6 C 11,7 C 7,8 C 86 % 999,2 hPa 0,0 l/m 0 min 0 min 144 W/m 12,9 km/h (3 Bft) 97,87 %
27.09.2022 17:04 11,6 C 11,1 C 7,8 C 86 % 999,2 hPa 0,0 l/m 0 min 0 min 125 W/m 19,3 km/h (3 Bft) 97,87 %
27.09.2022 17:06 11,5 C 11,1 C 7,8 C 86 % 999,3 hPa 0,0 l/m 0 min 0 min 107 W/m 19,3 km/h (3 Bft) 97,83 %
27.09.2022 17:08 11,5 C 11,1 C 7,8 C 86 % 999,3 hPa 0,0 l/m 0 min 0 min 106 W/m 12,9 km/h (3 Bft) 97,87 %
27.09.2022 17:10 11,4 C 11,1 C 7,8 C 86 % 999,2 hPa 0,0 l/m 0 min 0 min 82 W/m 16,1 km/h (3 Bft) 95,74 %
27.09.2022 17:12 11,4 C 10,6 C 7,8 C 86 % 999,3 hPa 0,0 l/m 0 min 0 min 53 W/m 16,1 km/h (3 Bft) 95,74 %
27.09.2022 17:14 11,4 C 10,6 C 7,8 C 86 % 999,3 hPa 0,0 l/m 0 min 0 min 43 W/m 16,1 km/h (3 Bft) 97,87 %
27.09.2022 17:16 11,4 C 10,6 C 7,8 C 87 % 999,3 hPa 0,0 l/m 0 min 0 min 36 W/m 12,9 km/h (3 Bft) 95,74 %
27.09.2022 17:18 11,4 C 10,6 C 7,2 C 87 % 999,4 hPa 0,0 l/m 0 min 2 min 33 W/m 19,3 km/h (3 Bft) 97,83 %
27.09.2022 17:20 11,2 C 10,6 C 6,7 C 87 % 999,4 hPa 0,0 l/m 0 min 2 min 30 W/m 22,5 km/h (4 Bft) 95,74 %
27.09.2022 17:22 11,1 C 10,0 C 6,7 C 87 % 999,4 hPa 0,2 l/m 0 min 2 min 22 W/m 12,9 km/h (3 Bft) 97,87 %
27.09.2022 17:24 10,9 C 10,0 C 6,1 C 87 % 999,4 hPa 0,0 l/m 0 min 2 min 19 W/m 16,1 km/h (3 Bft) 97,87 %
27.09.2022 17:26 10,7 C 9,4 C 5,6 C 87 % 999,4 hPa 0,2 l/m 0 min 2 min 16 W/m 9,7 km/h (2 Bft) 93,62 %
27.09.2022 17:28 10,6 C 9,4 C 5,6 C 87 % 999,4 hPa 0,0 l/m 0 min 2 min 13 W/m 16,1 km/h (3 Bft) 95,74 %
27.09.2022 17:30 10,4 C 8,9 C 5,6 C 87 % 999,4 hPa 0,0 l/m 0 min 2 min 15 W/m 12,9 km/h (3 Bft) 93,48 %
27.09.2022 17:32 10,3 C 8,9 C 5,6 C 88 % 999,4 hPa 0,2 l/m 0 min 2 min 22 W/m 3,2 km/h (1 Bft) 93,62 %
27.09.2022 17:34 10,3 C 8,9 C 5,6 C 88 % 999,4 hPa 0,0 l/m 0 min 2 min 25 W/m 6,4 km/h (2 Bft) 95,74 %
27.09.2022 17:36 10,2 C 8,9 C 5,6 C 88 % 999,3 hPa 0,0 l/m 0 min 2 min 28 W/m 16,1 km/h (3 Bft) 93,62 %
27.09.2022 17:38 10,1 C 8,9 C 5,6 C 89 % 999,2 hPa 0,2 l/m 0 min 2 min 36 W/m 19,3 km/h (3 Bft) 97,87 %
27.09.2022 17:40 10,0 C 8,9 C 5,0 C 89 % 999,1 hPa 0,0 l/m 0 min 2 min 42 W/m 19,3 km/h (3 Bft) 97,87 %
27.09.2022 17:42 9,9 C 8,9 C 5,0 C 89 % 999,0 hPa 0,0 l/m 0 min 0 min 44 W/m 16,1 km/h (3 Bft) 97,83 %
27.09.2022 17:44 9,8 C 8,9 C 5,0 C 89 % 999,1 hPa 0,0 l/m 0 min 0 min 40 W/m 16,1 km/h (3 Bft) 93,62 %
27.09.2022 17:46 9,8 C 8,9 C 5,0 C 90 % 999,1 hPa 0,0 l/m 0 min 0 min 35 W/m 9,7 km/h (2 Bft) 95,74 %
27.09.2022 17:48 9,7 C 8,9 C 5,0 C 90 % 999,1 hPa 0,0 l/m 0 min 0 min 31 W/m 6,4 km/h (2 Bft) 95,74 %
27.09.2022 17:50 9,7 C 8,9 C 5,0 C 90 % 999,1 hPa 0,0 l/m 0 min 0 min 30 W/m 12,9 km/h (3 Bft) 95,74 %
27.09.2022 17:52 9,6 C 8,9 C 5,0 C 90 % 999,1 hPa 0,0 l/m 0 min 0 min 34 W/m 12,9 km/h (3 Bft) 95,74 %
27.09.2022 17:54 9,6 C 8,9 C 5,0 C 90 % 999,0 hPa 0,0 l/m 0 min 0 min 38 W/m 16,1 km/h (3 Bft) 93,48 %
27.09.2022 17:56 9,5 C 8,9 C 5,0 C 91 % 999,1 hPa 0,0 l/m 0 min 0 min 42 W/m 12,9 km/h (3 Bft) 95,74 %
27.09.2022 17:58 9,4 C 8,9 C 5,0 C 91 % 999,0 hPa 0,0 l/m 0 min 0 min 48 W/m 16,1 km/h (3 Bft) 95,74 %
27.09.2022 18:00 9,4 C 8,9 C 5,0 C 91 % 999,1 hPa 0,0 l/m 0 min 0 min 55 W/m 9,7 km/h (2 Bft) 95,74 %
27.09.2022 18:02 9,4 C 8,9 C 5,0 C 91 % 999,1 hPa 0,0 l/m 0 min 0 min 58 W/m 9,7 km/h (2 Bft) 93,62 %
27.09.2022 18:04 9,4 C 8,9 C 5,0 C 91 % 999,1 hPa 0,0 l/m 0 min 0 min 59 W/m 3,2 km/h (1 Bft) 95,83 %
27.09.2022 18:08 9,5 C 8,9 C 5,0 C 91 % 999,1 hPa 0,0 l/m 0 min 0 min 51 W/m 6,4 km/h (2 Bft) 95,70 %
27.09.2022 18:10 9,5 C 8,9 C 5,6 C 92 % 999,1 hPa 0,0 l/m 0 min 0 min 42 W/m 6,4 km/h (2 Bft) 95,74 %
27.09.2022 18:12 9,6 C 8,9 C 5,6 C 92 % 999,1 hPa 0,0 l/m 0 min 0 min 39 W/m 9,7 km/h (2 Bft) 97,87 %
27.09.2022 18:14 9,5 C 8,9 C 5,0 C 92 % 999,0 hPa 0,0 l/m 0 min 0 min 39 W/m 9,7 km/h (2 Bft) 97,87 %
27.09.2022 18:16 9,5 C 8,9 C 5,6 C 92 % 999,1 hPa 0,0 l/m 0 min 0 min 41 W/m 9,7 km/h (2 Bft) 95,74 %
27.09.2022 18:18 9,5 C 8,9 C 5,6 C 92 % 999,1 hPa 0,0 l/m 0 min 0 min 44 W/m 12,9 km/h (3 Bft) 97,83 %
27.09.2022 18:20 9,5 C 8,9 C 5,6 C 92 % 999,0 hPa 0,0 l/m 0 min 0 min 46 W/m 9,7 km/h (2 Bft) 97,22 %
27.09.2022 18:22 9,5 C 8,9 C 5,6 C 92 % 999,0 hPa 0,0 l/m 0 min 0 min 46 W/m 9,7 km/h (2 Bft) 96,30 %
27.09.2022 18:24 9,5 C 8,9 C 5,0 C 92 % 999,1 hPa 0,0 l/m 0 min 0 min 49 W/m 6,4 km/h (2 Bft) 97,87 %
27.09.2022 18:26 9,5 C 9,4 C 5,0 C 92 % 999,0 hPa 0,0 l/m 0 min 0 min 54 W/m 12,9 km/h (3 Bft) 98,00 %
27.09.2022 18:28 9,5 C 8,9 C 5,0 C 92 % 998,9 hPa 0,0 l/m 0 min 0 min 60 W/m 12,9 km/h (3 Bft) 97,87 %
27.09.2022 18:30 9,4 C 8,9 C 5,0 C 91 % 999,0 hPa 0,0 l/m 2 min 0 min 63 W/m 12,9 km/h (3 Bft) 97,87 %
27.09.2022 18:32 9,5 C 9,4 C 5,6 C 92 % 998,9 hPa 0,0 l/m 2 min 0 min 63 W/m 12,9 km/h (3 Bft) 100,00 %
27.09.2022 18:34 9,5 C 9,4 C 5,6 C 92 % 999,0 hPa 0,0 l/m 2 min 0 min 63 W/m 9,7 km/h (2 Bft) 97,87 %
27.09.2022 18:36 9,5 C 9,4 C 5,6 C 92 % 998,9 hPa 0,0 l/m 2 min 0 min 63 W/m 6,4 km/h (2 Bft) 68,09 %
27.09.2022 18:38 9,6 C 9,4 C 5,6 C 92 % 998,9 hPa 0,0 l/m 2 min 0 min 70 W/m 9,7 km/h (2 Bft) 81,58 %
27.09.2022 18:40 9,6 C 9,4 C 5,6 C 92 % 998,9 hPa 0,0 l/m 2 min 0 min 74 W/m 9,7 km/h (2 Bft) 95,74 %
27.09.2022 18:42 9,6 C 9,4 C 5,6 C 92 % 998,8 hPa 0,0 l/m 2 min 0 min 66 W/m 6,4 km/h (2 Bft) 95,74 %
27.09.2022 18:44 9,6 C 9,4 C 5,6 C 92 % 998,8 hPa 0,0 l/m 2 min 0 min 53 W/m 9,7 km/h (2 Bft) 100,00 %
27.09.2022 18:46 9,6 C 8,9 C 5,6 C 92 % 998,8 hPa 0,0 l/m 0 min 0 min 39 W/m 12,9 km/h (3 Bft) 97,87 %
27.09.2022 18:48 9,6 C 8,9 C 5,6 C 92 % 998,7 hPa 0,0 l/m 0 min 0 min 32 W/m 3,2 km/h (1 Bft) 100,00 %
27.09.2022 18:50 9,6 C 8,9 C 5,6 C 92 % 998,7 hPa 0,0 l/m 0 min 0 min 26 W/m 6,4 km/h (2 Bft) 97,87 %
27.09.2022 18:52 9,6 C 8,9 C 5,6 C 92 % 998,7 hPa 0,0 l/m 0 min 0 min 21 W/m 6,4 km/h (2 Bft) 95,74 %
27.09.2022 18:54 9,6 C 8,9 C 5,6 C 92 % 998,8 hPa 0,0 l/m 0 min 0 min 16 W/m 9,7 km/h (2 Bft) 97,87 %
27.09.2022 18:56 9,6 C 8,9 C 5,6 C 92 % 998,7 hPa 0,0 l/m 0 min 0 min 13 W/m 16,1 km/h (3 Bft) 97,83 %
27.09.2022 18:58 9,6 C 8,9 C 5,0 C 92 % 998,7 hPa 0,0 l/m 0 min 0 min 11 W/m 12,9 km/h (3 Bft) 97,87 %
27.09.2022 19:00 9,6 C 8,9 C 5,0 C 92 % 998,7 hPa 0,0 l/m 0 min 0 min 11 W/m 12,9 km/h (3 Bft) 95,74 %
27.09.2022 19:02 9,6 C 8,9 C 5,6 C 92 % 998,7 hPa 0,0 l/m 0 min 0 min 11 W/m 9,7 km/h (2 Bft) 97,87 %
27.09.2022 19:04 9,5 C 8,9 C 5,0 C 92 % 998,6 hPa 0,0 l/m 0 min 0 min 11 W/m 9,7 km/h (2 Bft) 97,87 %
27.09.2022 19:06 9,5 C 8,9 C 5,6 C 92 % 998,6 hPa 0,0 l/m 0 min 0 min 10 W/m 9,7 km/h (2 Bft) 95,74 %
27.09.2022 19:08 9,5 C 8,9 C 5,6 C 92 % 998,7 hPa 0,0 l/m 0 min 0 min 7 W/m 12,9 km/h (3 Bft) 97,83 %
27.09.2022 19:10 9,5 C 8,9 C 5,6 C 92 % 998,7 hPa 0,0 l/m 0 min 0 min 6 W/m 9,7 km/h (2 Bft) 97,87 %
27.09.2022 19:12 9,5 C 8,9 C 5,6 C 92 % 998,7 hPa 0,0 l/m 0 min 0 min 5 W/m 9,7 km/h (2 Bft) 95,74 %
27.09.2022 19:14 9,5 C 8,9 C 5,6 C 92 % 998,6 hPa 0,0 l/m 0 min 0 min 1 W/m 12,9 km/h (3 Bft) 97,87 %
27.09.2022 19:16 9,5 C 8,9 C 5,6 C 92 % 998,6 hPa 0,0 l/m 0 min 0 min 0 W/m 12,9 km/h (3 Bft) 97,87 %
27.09.2022 19:18 9,4 C 8,9 C 5,6 C 92 % 998,6 hPa 0,0 l/m 0 min 0 min 0 W/m 16,1 km/h (3 Bft) 97,87 %
27.09.2022 19:20 9,4 C 8,3 C 5,6 C 92 % 998,6 hPa 0,0 l/m 0 min 0 min 0 W/m 12,9 km/h (3 Bft) 100,00 %
27.09.2022 19:22 9,4 C 8,3 C 5,0 C 92 % 998,6 hPa 0,0 l/m 0 min 0 min 0 W/m 12,9 km/h (3 Bft) 100,00 %
27.09.2022 19:24 9,4 C 8,3 C 5,0 C 92 % 998,6 hPa 0,0 l/m 0 min 0 min 0 W/m 9,7 km/h (2 Bft) 97,87 %
27.09.2022 19:26 9,4 C 8,3 C 5,0 C 93 % 998,6 hPa 0,0 l/m 0 min 0 min 0 W/m 19,3 km/h (3 Bft) 100,00 %
27.09.2022 19:28 9,3 C 8,3 C 5,0 C 93 % 998,6 hPa 0,0 l/m 0 min 0 min 0 W/m 12,9 km/h (3 Bft) 97,87 %
27.09.2022 19:30 9,3 C 8,3 C 5,0 C 93 % 998,6 hPa 0,0 l/m 0 min 0 min 0 W/m 12,9 km/h (3 Bft) 100,00 %
27.09.2022 19:32 9,3 C 8,3 C 5,0 C 93 % 998,5 hPa 0,0 l/m 0 min 2 min 0 W/m 16,1 km/h (3 Bft) 100,00 %
27.09.2022 19:34 9,3 C 8,3 C 5,0 C 93 % 998,5 hPa 0,0 l/m 0 min 0 min 0 W/m 9,7 km/h (2 Bft) 100,00 %
27.09.2022 19:36 9,3 C 8,3 C 5,0 C 93 % 998,5 hPa 0,0 l/m 0 min 0 min 0 W/m 12,9 km/h (3 Bft) 100,00 %
27.09.2022 19:38 9,3 C 8,9 C 5,6 C 93 % 998,5 hPa 0,0 l/m 0 min 0 min 0 W/m 12,9 km/h (3 Bft) 100,00 %
27.09.2022 19:40 9,3 C 8,9 C 5,6 C 93 % 998,5 hPa 0,0 l/m 0 min 0 min 0 W/m 9,7 km/h (2 Bft) 97,87 %
27.09.2022 19:42 9,3 C 8,9 C 5,0 C 93 % 998,5 hPa 0,0 l/m 0 min 0 min 0 W/m 9,7 km/h (2 Bft) 100,00 %
27.09.2022 19:44 9,3 C 8,9 C 5,6 C 93 % 998,5 hPa 0,0 l/m 0 min 0 min 0 W/m 9,7 km/h (2 Bft) 100,00 %
27.09.2022 19:46 9,3 C 8,9 C 5,6 C 93 % 998,5 hPa 0,0 l/m 0 min 0 min 0 W/m 9,7 km/h (2 Bft) 97,87 %
27.09.2022 19:48 9,3 C 8,9 C 5,6 C 93 % 998,4 hPa 0,0 l/m 0 min 0 min 0 W/m 9,7 km/h (2 Bft) 100,00 %
27.09.2022 19:50 9,3 C 8,9 C 5,6 C 93 % 998,4 hPa 0,0 l/m 0 min 0 min 0 W/m 9,7 km/h (2 Bft) 100,00 %
27.09.2022 19:52 9,3 C 8,9 C 5,6 C 93 % 998,4 hPa 0,0 l/m 0 min 0 min 0 W/m 6,4 km/h (2 Bft) 100,00 %
27.09.2022 19:54 9,3 C 8,9 C 5,6 C 93 % 998,4 hPa 0,0 l/m 0 min 0 min 0 W/m 3,2 km/h (1 Bft) 95,74 %
27.09.2022 19:56 9,3 C 8,9 C 5,6 C 93 % 998,4 hPa 0,0 l/m 0 min 0 min 0 W/m 6,4 km/h (2 Bft) 97,83 %
27.09.2022 19:58 9,3 C 8,9 C 5,6 C 93 % 998,4 hPa 0,0 l/m 0 min 0 min 0 W/m 3,2 km/h (1 Bft) 97,87 %
27.09.2022 20:00 9,4 C 8,9 C 5,6 C 93 % 998,4 hPa 0,0 l/m 0 min 0 min 0 W/m 3,2 km/h (1 Bft) 97,92 %
27.09.2022 20:02 9,4 C 8,9 C 5,6 C 93 % 998,4 hPa 0,0 l/m 0 min 0 min 0 W/m 3,2 km/h (1 Bft) 97,87 %
27.09.2022 20:04 9,4 C 8,9 C 5,6 C 93 % 998,4 hPa 0,0 l/m 0 min 0 min 0 W/m 6,4 km/h (2 Bft) 97,87 %
27.09.2022 20:06 9,4 C 8,9 C 5,6 C 93 % 998,3 hPa 0,0 l/m 0 min 0 min 0 W/m 6,4 km/h (2 Bft) 97,87 %
27.09.2022 20:08 9,4 C 8,9 C 5,6 C 93 % 998,3 hPa 0,0 l/m 0 min 0 min 0 W/m 9,7 km/h (2 Bft) 95,65 %
27.09.2022 20:10 9,4 C 8,9 C 5,6 C 93 % 998,3 hPa 0,0 l/m 0 min 0 min 0 W/m 3,2 km/h (1 Bft) 97,87 %
27.09.2022 20:12 9,4 C 8,9 C 5,6 C 93 % 998,3 hPa 0,0 l/m 0 min 0 min 0 W/m 3,2 km/h (1 Bft) 97,87 %
27.09.2022 20:14 9,4 C 8,9 C 5,6 C 93 % 998,3 hPa 0,0 l/m 0 min 0 min 0 W/m 3,2 km/h (1 Bft) 97,87 %
27.09.2022 20:16 9,4 C 8,9 C 5,6 C 93 % 998,3 hPa 0,0 l/m 0 min 0 min 0 W/m 9,7 km/h (2 Bft) 97,87 %
27.09.2022 20:18 9,4 C 8,9 C 5,6 C 93 % 998,3 hPa 0,0 l/m 0 min 0 min 0 W/m 3,2 km/h (1 Bft) 97,87 %
27.09.2022 20:20 9,4 C 8,9 C 5,6 C 94 % 998,3 hPa 0,0 l/m 0 min 0 min 0 W/m 3,2 km/h (1 Bft) 95,65 %
27.09.2022 20:22 9,4 C 8,9 C 5,6 C 94 % 998,3 hPa 0,0 l/m 0 min 0 min 0 W/m 3,2 km/h (1 Bft) 91,49 %
27.09.2022 20:24 9,4 C 8,9 C 5,6 C 94 % 998,3 hPa 0,0 l/m 0 min 0 min 0 W/m 3,2 km/h (1 Bft) 95,74 %
27.09.2022 20:26 9,4 C 8,9 C 5,6 C 94 % 998,3 hPa 0,0 l/m 0 min 0 min 0 W/m 3,2 km/h (1 Bft) 95,74 %
27.09.2022 20:28 9,4 C 8,9 C 5,6 C 94 % 998,2 hPa 0,0 l/m 0 min 0 min 0 W/m 3,2 km/h (1 Bft) 97,87 %
27.09.2022 20:30 9,4 C 8,9 C 5,6 C 94 % 998,2 hPa 0,0 l/m 0 min 0 min 0 W/m 9,7 km/h (2 Bft) 97,87 %
27.09.2022 20:32 9,4 C 8,9 C 5,6 C 94 % 998,2 hPa 0,0 l/m 0 min 0 min 0 W/m 3,2 km/h (1 Bft) 97,83 %
27.09.2022 20:34 9,4 C 8,9 C 5,6 C 94 % 998,2 hPa 0,0 l/m 0 min 0 min 0 W/m 3,2 km/h (1 Bft) 95,74 %
27.09.2022 20:36 9,4 C 8,9 C 5,6 C 94 % 998,2 hPa 0,0 l/m 0 min 0 min 0 W/m 3,2 km/h (1 Bft) 95,74 %
27.09.2022 20:38 9,4 C 8,9 C 5,6 C 94 % 998,2 hPa 0,0 l/m 0 min 0 min 0 W/m 3,2 km/h (1 Bft) 97,87 %
27.09.2022 20:40 9,4 C 8,9 C 5,6 C 94 % 998,2 hPa 0,0 l/m 0 min 0 min 0 W/m 3,2 km/h (1 Bft) 97,87 %
27.09.2022 20:42 9,4 C 8,9 C 5,6 C 94 % 998,1 hPa 0,0 l/m 0 min 0 min 0 W/m 3,2 km/h (1 Bft) 97,87 %
27.09.2022 20:44 9,4 C 8,9 C 5,6 C 94 % 998,1 hPa 0,0 l/m 0 min 0 min 0 W/m 3,2 km/h (1 Bft) 100,00 %
27.09.2022 20:46 9,4 C 8,3 C 5,6 C 94 % 998,0 hPa 0,0 l/m 0 min 0 min 0 W/m 3,2 km/h (1 Bft) 97,87 %
27.09.2022 20:48 9,4 C 8,3 C 5,6 C 94 % 998,0 hPa 0,0 l/m 0 min 0 min 0 W/m 3,2 km/h (1 Bft) 97,87 %
27.09.2022 20:50 9,4 C 8,3 C 5,6 C 94 % 998,0 hPa 0,0 l/m 0 min 0 min 0 W/m 3,2 km/h (1 Bft) 95,74 %
27.09.2022 20:52 9,4 C 8,9 C 5,6 C 94 % 998,0 hPa 0,0 l/m 0 min 0 min 0 W/m 3,2 km/h (1 Bft) 97,87 %
27.09.2022 20:54 9,4 C 8,9 C 5,6 C 94 % 997,9 hPa 0,0 l/m 0 min 0 min 0 W/m 0,0 km/h (0 Bft) 97,87 %
27.09.2022 20:56 9,4 C 8,9 C 5,6 C 94 % 997,9 hPa 0,0 l/m 0 min 0 min 0 W/m 3,2 km/h (1 Bft) 97,83 %
27.09.2022 20:58 9,4 C 8,9 C 5,6 C 94 % 997,9 hPa 0,0 l/m 0 min 0 min 0 W/m 0,0 km/h (0 Bft) 97,87 %
27.09.2022 21:00 9,4 C 8,9 C 5,6 C 94 % 997,8 hPa 0,0 l/m 0 min 0 min 0 W/m 3,2 km/h (1 Bft) 97,87 %
27.09.2022 21:02 9,4 C 8,9 C 5,6 C 94 % 997,8 hPa 0,0 l/m 0 min 0 min 0 W/m 3,2 km/h (1 Bft) 97,87 %
27.09.2022 21:04 9,4 C 8,9 C 5,6 C 94 % 997,8 hPa 0,0 l/m 0 min 2 min 0 W/m 3,2 km/h (1 Bft) 100,00 %
27.09.2022 21:06 9,4 C 8,9 C 5,6 C 94 % 997,7 hPa 0,0 l/m 0 min 0 min 0 W/m 0,0 km/h (0 Bft) 100,00 %
27.09.2022 21:08 9,4 C 8,9 C 5,6 C 94 % 997,7 hPa 0,0 l/m 0 min 0 min 0 W/m 0,0 km/h (0 Bft) 95,65 %
27.09.2022 21:10 9,4 C 8,9 C 5,6 C 94 % 997,7 hPa 0,0 l/m 0 min 2 min 0 W/m 3,2 km/h (1 Bft) 100,00 %
27.09.2022 21:12 9,4 C 8,9 C 5,6 C 94 % 997,7 hPa 0,0 l/m 0 min 2 min 0 W/m 3,2 km/h (1 Bft) 95,74 %
27.09.2022 21:14 9,4 C 8,9 C 5,6 C 94 % 997,6 hPa 0,0 l/m 0 min 2 min 0 W/m 3,2 km/h (1 Bft) 97,87 %
27.09.2022 21:16 9,4 C 8,9 C 5,6 C 94 % 997,6 hPa 0,0 l/m 0 min 2 min 0 W/m 3,2 km/h (1 Bft) 97,87 %
27.09.2022 21:18 9,4 C 8,9 C 5,6 C 94 % 997,7 hPa 0,0 l/m 0 min 2 min 0 W/m 3,2 km/h (1 Bft) 97,87 %
27.09.2022 21:20 9,4 C 8,9 C 5,6 C 94 % 997,6 hPa 0,0 l/m 0 min 2 min 0 W/m 6,4 km/h (2 Bft) 97,83 %
27.09.2022 21:22 9,4 C 8,9 C 5,6 C 94 % 997,6 hPa 0,0 l/m 0 min 2 min 0 W/m 3,2 km/h (1 Bft) 97,87 %
27.09.2022 21:24 9,4 C 8,9 C 5,6 C 94 % 997,5 hPa 0,0 l/m 0 min 2 min 0 W/m 3,2 km/h (1 Bft) 97,87 %
27.09.2022 21:26 9,4 C 8,9 C 5,6 C 94 % 997,5 hPa 0,0 l/m 0 min 2 min 0 W/m 3,2 km/h (1 Bft) 97,87 %
27.09.2022 21:28 9,4 C 8,9 C 5,6 C 94 % 997,5 hPa 0,0 l/m 0 min 2 min 0 W/m 3,2 km/h (1 Bft) 97,87 %
27.09.2022 21:30 9,4 C 8,9 C 5,6 C 94 % 997,5 hPa 0,2 l/m 0 min 2 min 0 W/m 3,2 km/h (1 Bft) 95,65 %
27.09.2022 21:32 9,4 C 8,9 C 5,6 C 94 % 997,5 hPa 0,0 l/m 0 min 2 min 0 W/m 3,2 km/h (1 Bft) 97,87 %
27.09.2022 21:34 9,4 C 8,9 C 5,6 C 95 % 997,5 hPa 0,0 l/m 0 min 2 min 0 W/m 6,4 km/h (2 Bft) 95,74 %
27.09.2022 21:36 9,4 C 8,9 C 5,6 C 95 % 997,6 hPa 0,2 l/m 0 min 2 min 0 W/m 3,2 km/h (1 Bft) 97,87 %
27.09.2022 21:38 9,4 C 8,3 C 5,6 C 95 % 997,5 hPa 0,2 l/m 0 min 2 min 0 W/m 3,2 km/h (1 Bft) 97,87 %
27.09.2022 21:40 9,4 C 8,3 C 5,6 C 95 % 997,4 hPa 0,0 l/m 0 min 2 min 0 W/m 6,4 km/h (2 Bft) 97,87 %
27.09.2022 21:42 9,4 C 8,3 C 5,6 C 95 % 997,4 hPa 0,2 l/m 0 min 2 min 0 W/m 3,2 km/h (1 Bft) 95,74 %
27.09.2022 21:44 9,3 C 8,3 C 5,6 C 95 % 997,4 hPa 0,0 l/m 0 min 2 min 0 W/m 12,9 km/h (3 Bft) 97,83 %
27.09.2022 21:46 9,3 C 8,3 C 5,6 C 94 % 997,3 hPa 0,0 l/m 0 min 2 min 0 W/m 3,2 km/h (1 Bft) 97,87 %
27.09.2022 21:48 9,3 C 8,3 C 5,6 C 95 % 997,4 hPa 0,0 l/m 0 min 2 min 0 W/m 3,2 km/h (1 Bft) 95,74 %
27.09.2022 21:50 9,3 C 8,3 C 5,6 C 95 % 997,3 hPa 0,0 l/m 0 min 0 min 0 W/m 6,4 km/h (2 Bft) 97,87 %
27.09.2022 21:52 9,3 C 8,3 C 5,6 C 95 % 997,3 hPa 0,0 l/m 0 min 2 min 0 W/m 6,4 km/h (2 Bft) 97,87 %
27.09.2022 21:54 9,3 C 8,3 C 5,6 C 95 % 997,2 hPa 0,0 l/m 0 min 2 min 0 W/m 9,7 km/h (2 Bft) 97,83 %
27.09.2022 21:56 9,3 C 8,3 C 5,6 C 95 % 997,3 hPa 0,0 l/m 0 min 2 min 0 W/m 3,2 km/h (1 Bft) 97,87 %
27.09.2022 21:58 9,3 C 8,3 C 5,6 C 95 % 997,3 hPa 0,0 l/m 0 min 2 min 0 W/m 3,2 km/h (1 Bft) 97,87 %
27.09.2022 22:00 9,3 C 8,3 C 5,6 C 95 % 997,4 hPa 0,0 l/m 0 min 2 min 0 W/m 3,2 km/h (1 Bft) 97,87 %
27.09.2022 22:02 9,3 C 8,3 C 5,6 C 95 % 997,3 hPa 0,2 l/m 0 min 2 min 0 W/m 3,2 km/h (1 Bft) 95,74 %
27.09.2022 22:04 9,3 C 8,3 C 5,6 C 95 % 997,3 hPa 0,2 l/m 0 min 2 min 0 W/m 3,2 km/h (1 Bft) 93,62 %
27.09.2022 22:06 9,3 C 8,3 C 5,6 C 95 % 997,3 hPa 0,0 l/m 0 min 2 min 0 W/m 6,4 km/h (2 Bft) 97,83 %
27.09.2022 22:08 9,3 C 8,3 C 5,6 C 95 % 997,3 hPa 0,0 l/m 0 min 2 min 0 W/m 3,2 km/h (1 Bft) 97,87 %
27.09.2022 22:10 9,3 C 8,3 C 5,6 C 95 % 997,2 hPa 0,0 l/m 0 min 2 min 0 W/m 3,2 km/h (1 Bft) 100,00 %
27.09.2022 22:12 9,3 C 8,3 C 5,6 C 95 % 997,2 hPa 0,0 l/m 0 min 2 min 0 W/m 3,2 km/h (1 Bft) 100,00 %
27.09.2022 22:14 9,3 C 8,3 C 5,6 C 95 % 997,2 hPa 0,2 l/m 0 min 2 min 0 W/m 3,2 km/h (1 Bft) 97,87 %
27.09.2022 22:16 9,3 C 8,3 C 5,6 C 95 % 997,2 hPa 0,0 l/m 0 min 2 min 0 W/m 6,4 km/h (2 Bft) 95,74 %
27.09.2022 22:18 9,3 C 8,3 C 5,6 C 95 % 997,2 hPa 0,2 l/m 0 min 2 min 0 W/m 3,2 km/h (1 Bft) 95,65 %
27.09.2022 22:20 9,3 C 8,3 C 5,6 C 95 % 997,3 hPa 0,0 l/m 0 min 2 min 0 W/m 9,7 km/h (2 Bft) 97,87 %
27.09.2022 22:22 9,3 C 8,3 C 5,6 C 95 % 997,4 hPa 0,0 l/m 0 min 2 min 0 W/m 6,4 km/h (2 Bft) 95,74 %
27.09.2022 22:24 9,3 C 8,3 C 5,6 C 95 % 997,5 hPa 0,4 l/m 0 min 2 min 0 W/m 9,7 km/h (2 Bft) 93,62 %
27.09.2022 22:26 9,3 C 8,3 C 5,6 C 95 % 997,4 hPa 0,2 l/m 0 min 2 min 0 W/m 12,9 km/h (3 Bft) 93,62 %
27.09.2022 22:28 9,3 C 8,3 C 5,6 C 95 % 997,3 hPa 0,2 l/m 0 min 2 min 0 W/m 12,9 km/h (3 Bft) 95,74 %
27.09.2022 22:30 9,3 C 8,3 C 5,6 C 95 % 997,3 hPa 0,0 l/m 0 min 2 min 0 W/m 9,7 km/h (2 Bft) 95,65 %
27.09.2022 22:32 9,3 C 8,3 C 5,6 C 95 % 997,4 hPa 0,2 l/m 0 min 2 min 0 W/m 16,1 km/h (3 Bft) 95,74 %
27.09.2022 22:34 9,3 C 8,3 C 5,6 C 95 % 997,4 hPa 0,2 l/m 0 min 2 min 0 W/m 6,4 km/h (2 Bft) 95,74 %
27.09.2022 22:36 9,3 C 8,3 C 5,6 C 96 % 997,4 hPa 0,0 l/m 0 min 2 min 0 W/m 3,2 km/h (1 Bft) 95,74 %
27.09.2022 22:38 9,3 C 8,3 C 5,6 C 96 % 997,4 hPa 0,2 l/m 0 min 2 min 0 W/m 9,7 km/h (2 Bft) 95,74 %
27.09.2022 22:40 9,3 C 8,3 C 5,6 C 96 % 997,4 hPa 0,2 l/m 0 min 2 min 0 W/m 6,4 km/h (2 Bft) 91,49 %
27.09.2022 22:42 9,4 C 8,3 C 5,6 C 96 % 997,4 hPa 0,0 l/m 0 min 2 min 0 W/m 3,2 km/h (1 Bft) 95,65 %
27.09.2022 22:44 9,4 C 8,3 C 5,6 C 96 % 997,4 hPa 0,2 l/m 0 min 2 min 0 W/m 3,2 km/h (1 Bft) 95,74 %
27.09.2022 22:46 9,4 C 8,3 C 5,6 C 96 % 997,4 hPa 0,2 l/m 0 min 2 min 0 W/m 6,4 km/h (2 Bft) 95,74 %
27.09.2022 22:48 9,3 C 8,3 C 5,6 C 96 % 997,5 hPa 0,0 l/m 0 min 2 min 0 W/m 6,4 km/h (2 Bft) 95,74 %
27.09.2022 22:50 9,3 C 8,3 C 5,6 C 96 % 997,5 hPa 0,2 l/m 0 min 2 min 0 W/m 9,7 km/h (2 Bft) 93,62 %
27.09.2022 22:52 9,3 C 8,3 C 5,6 C 96 % 997,4 hPa 0,2 l/m 0 min 2 min 0 W/m 12,9 km/h (3 Bft) 93,62 %
27.09.2022 22:54 9,2 C 8,3 C 5,6 C 96 % 997,4 hPa 0,2 l/m 0 min 2 min 0 W/m 9,7 km/h (2 Bft) 95,65 %
27.09.2022 22:56 9,2 C 7,8 C 5,0 C 96 % 997,4 hPa 0,0 l/m 0 min 2 min 0 W/m 12,9 km/h (3 Bft) 100,00 %
27.09.2022 22:58 9,1 C 7,8 C 5,0 C 96 % 997,4 hPa 0,2 l/m 0 min 2 min 0 W/m 9,7 km/h (2 Bft) 100,00 %
27.09.2022 23:00 9,0 C 7,8 C 5,0 C 96 % 997,3 hPa 0,0 l/m 0 min 2 min 0 W/m 3,2 km/h (1 Bft) 100,00 %
27.09.2022 23:02 8,9 C 7,8 C 5,0 C 96 % 997,2 hPa 0,0 l/m 0 min 2 min 0 W/m 3,2 km/h (1 Bft) 100,00 %
27.09.2022 23:04 8,9 C 7,8 C 5,0 C 96 % 997,1 hPa 0,0 l/m 0 min 2 min 0 W/m 3,2 km/h (1 Bft) 97,87 %
27.09.2022 23:06 8,8 C 7,8 C 5,0 C 96 % 997,1 hPa 0,0 l/m 0 min 0 min 0 W/m 3,2 km/h (1 Bft) 100,00 %
27.09.2022 23:08 8,8 C 7,8 C 5,0 C 96 % 997,1 hPa 0,0 l/m 0 min 0 min 0 W/m 3,2 km/h (1 Bft) 100,00 %
27.09.2022 23:10 8,8 C 7,8 C 5,0 C 96 % 997,0 hPa 0,0 l/m 0 min 0 min 0 W/m 3,2 km/h (1 Bft) 97,87 %
27.09.2022 23:12 8,8 C 7,8 C 5,0 C 96 % 997,0 hPa 0,0 l/m 0 min 0 min 0 W/m 0,0 km/h (0 Bft) 100,00 %
27.09.2022 23:14 8,7 C 7,8 C 5,0 C 96 % 997,0 hPa 0,0 l/m 0 min 0 min 0 W/m 3,2 km/h (1 Bft) 100,00 %
27.09.2022 23:16 8,7 C 7,8 C 5,0 C 96 % 997,0 hPa 0,0 l/m 0 min 0 min 0 W/m 0,0 km/h (0 Bft) 100,00 %
27.09.2022 23:18 8,7 C 7,8 C 5,0 C 96 % 997,0 hPa 0,0 l/m 0 min 0 min 0 W/m 0,0 km/h (0 Bft) 100,00 %
27.09.2022 23:20 8,7 C 7,8 C 5,0 C 96 % 996,9 hPa 0,0 l/m 0 min 0 min 0 W/m 3,2 km/h (1 Bft) 100,00 %
27.09.2022 23:22 8,7 C 7,8 C 5,0 C 96 % 996,8 hPa 0,0 l/m 0 min 0 min 0 W/m 0,0 km/h (0 Bft) 100,00 %
27.09.2022 23:24 8,6 C 7,8 C 5,0 C 96 % 996,7 hPa 0,0 l/m 0 min 0 min 0 W/m 0,0 km/h (0 Bft) 97,87 %
27.09.2022 23:26 8,6 C 7,8 C 5,0 C 96 % 996,7 hPa 0,0 l/m 0 min 0 min 0 W/m 0,0 km/h (0 Bft) 97,87 %
27.09.2022 23:28 8,6 C 7,8 C 5,0 C 96 % 996,7 hPa 0,0 l/m 0 min 0 min 0 W/m 0,0 km/h (0 Bft) 100,00 %
27.09.2022 23:30 8,6 C 7,8 C 5,0 C 96 % 996,7 hPa 0,0 l/m 0 min 0 min 0 W/m 0,0 km/h (0 Bft) 97,83 %
27.09.2022 23:32 8,6 C 7,8 C 5,0 C 96 % 996,7 hPa 0,0 l/m 0 min 0 min 0 W/m 3,2 km/h (1 Bft) 100,00 %
27.09.2022 23:34 8,6 C 7,8 C 5,0 C 96 % 996,7 hPa 0,0 l/m 0 min 0 min 0 W/m 3,2 km/h (1 Bft) 100,00 %
27.09.2022 23:36 8,6 C 7,8 C 5,0 C 96 % 996,6 hPa 0,0 l/m 0 min 0 min 0 W/m 0,0 km/h (0 Bft) 100,00 %
27.09.2022 23:38 8,6 C 7,8 C 5,0 C 96 % 996,6 hPa 0,0 l/m 0 min 0 min 0 W/m 0,0 km/h (0 Bft) 100,00 %
27.09.2022 23:40 8,6 C 7,8 C 5,0 C 96 % 996,6 hPa 0,0 l/m 0 min 0 min 0 W/m 6,4 km/h (2 Bft) 97,87 %
27.09.2022 23:42 8,6 C 7,8 C 5,0 C 96 % 996,6 hPa 0,0 l/m 0 min 0 min 0 W/m 0,0 km/h (0 Bft) 97,83 %
27.09.2022 23:44 8,5 C 7,8 C 5,0 C 96 % 996,6 hPa 0,0 l/m 0 min 0 min 0 W/m 9,7 km/h (2 Bft) 100,00 %
27.09.2022 23:46 8,5 C 7,8 C 5,0 C 96 % 996,6 hPa 0,0 l/m 0 min 0 min 0 W/m 9,7 km/h (2 Bft) 100,00 %
27.09.2022 23:48 8,5 C 7,8 C 5,0 C 96 % 996,6 hPa 0,0 l/m 0 min 0 min 0 W/m 3,2 km/h (1 Bft) 100,00 %
27.09.2022 23:50 8,4 C 7,8 C 5,0 C 96 % 996,6 hPa 0,0 l/m 0 min 0 min 0 W/m 0,0 km/h (0 Bft) 100,00 %
27.09.2022 23:52 8,4 C 7,8 C 5,0 C 96 % 996,6 hPa 0,0 l/m 0 min 0 min 0 W/m 3,2 km/h (1 Bft) 100,00 %
27.09.2022 23:54 8,4 C 7,8 C 5,0 C 96 % 996,6 hPa 0,0 l/m 0 min 0 min 0 W/m 0,0 km/h (0 Bft) 100,00 %
27.09.2022 23:56 8,4 C 7,8 C 5,0 C 97 % 996,6 hPa 0,0 l/m 0 min 0 min 0 W/m 0,0 km/h (0 Bft) 100,00 %
27.09.2022 23:58 8,4 C 7,8 C 5,0 C 97 % 996,6 hPa 0,0 l/m 0 min 0 min 0 W/m 3,2 km/h (1 Bft) 100,00 %
_ Min-Zeit 23:50 07:04 06:40 16:04 00:00 - - - - 20:54 18:36
Minimum _ 8,4 C 7,8 C 5,0 C 82 % 996,0 hPa - - - - 0,0 km/h (0 Bft) 68,09 %
_ Max-Zeit 16:24 15:52 15:50 00:00 11:28 22:24 11:46 00:08 15:54 14:20 01:42
Maximum _ 12,2 C 12,8 C 8,9 C 97 % 999,6 hPa 0,4 l/m 2 min 4 min 573 W/m 38,6 km/h
N-NO (5 Bft)
100,00 %
Durchschnitt _ 9,9 C 9,5 C 6,3 C 94 % 998,1 hPa #6,4 l/m #1:40 h #6:11 h 136 W/m 11,4 km/h (2 Bft) 97,44 %
© 2022 W. Hausmann